| time (UTC) | temp F | wind direction | speed MPH | gust MPH | rain 1hr in | rain 24hr in | rain mn in | humidity % | barometer mb |
| 20260505213911 | 52 | 302 | 0.0 | 2.0 | 0.00 | 0.46 | 0.09 | 56 | 1009.1 |
| 20260505213822 | 52 | 302 | 0.0 | 2.0 | 0.00 | 0.46 | 0.09 | 55 | 1009.1 |
| 20260505213711 | 52 | 302 | 0.0 | 2.0 | 0.00 | 0.46 | 0.09 | 58 | 1009.1 |
| 20260505213602 | 52 | 302 | 0.0 | 2.0 | 0.00 | 0.46 | 0.09 | 55 | 1009.1 |
| 20260505213514 | 51 | 302 | 1.0 | 3.0 | 0.00 | 0.46 | 0.09 | 54 | 1009.1 |
| 20260505213404 | 51 | 302 | 1.0 | 3.0 | 0.00 | 0.46 | 0.09 | 53 | 1009.1 |
| 20260505213317 | 51 | 302 | 1.0 | 3.0 | 0.00 | 0.46 | 0.09 | 53 | 1009.1 |
| 20260505213207 | 52 | 302 | 1.0 | 3.0 | 0.00 | 0.46 | 0.09 | 52 | 1009.1 |
| 20260505213123 | 51 | 302 | 1.0 | 3.0 | 0.00 | 0.46 | 0.09 | 54 | 1009.1 |
| 20260505213044 | 51 | 302 | 1.0 | 3.0 | 0.00 | 0.46 | 0.09 | 53 | 1009.1 |
| 20260505212913 | 51 | 302 | 1.0 | 3.0 | 0.00 | 0.46 | 0.09 | 53 | 1009.1 |
| 20260505212805 | 51 | 302 | 1.0 | 3.0 | 0.00 | 0.46 | 0.09 | 56 | 1009.1 |
| 20260505212716 | 51 | 302 | 2.0 | 3.0 | 0.00 | 0.46 | 0.09 | 56 | 1009.1 |
| 20260505212606 | 51 | 302 | 2.0 | 3.0 | 0.00 | 0.46 | 0.09 | 55 | 1009.1 |
| 20260505212517 | 51 | 302 | 2.0 | 3.0 | 0.00 | 0.46 | 0.09 | 53 | 1009.2 |
| 20260505212407 | 51 | 302 | 2.0 | 4.0 | 0.00 | 0.46 | 0.09 | 52 | 1009.2 |
| 20260505212259 | 51 | 302 | 1.0 | 4.0 | 0.00 | 0.46 | 0.09 | 53 | 1009.2 |
| 20260505212213 | 51 | 302 | 1.0 | 5.0 | 0.00 | 0.46 | 0.09 | 52 | 1009.3 |
| 20260505212122 | 51 | 302 | 2.0 | 5.0 | 0.00 | 0.46 | 0.09 | 53 | 1009.3 |
| 20260505212033 | 51 | 302 | 1.0 | 5.0 | 0.00 | 0.46 | 0.09 | 53 | 1009.2 |
| 20260505211922 | 51 | 302 | 1.0 | 5.0 | 0.00 | 0.46 | 0.09 | 52 | 1009.3 |
| 20260505211834 | 51 | 302 | 1.0 | 5.0 | 0.00 | 0.46 | 0.09 | 54 | 1009.3 |
| 20260505211744 | 51 | 302 | 2.0 | 5.0 | 0.00 | 0.46 | 0.09 | 53 | 1009.3 |
| 20260505211657 | 51 | 282 | 3.0 | 5.0 | 0.00 | 0.46 | 0.09 | 52 | 1009.4 |
| 20260505211558 | 51 | 267 | 3.0 | 5.0 | 0.00 | 0.46 | 0.09 | 51 | 1009.4 |
| 20260505211427 | 51 | 296 | 3.0 | 5.0 | 0.00 | 0.46 | 0.09 | 51 | 1009.4 |
| 20260505211317 | 51 | 288 | 3.0 | 5.0 | 0.00 | 0.46 | 0.09 | 52 | 1009.4 |
| 20260505211207 | 51 | 321 | 3.0 | 5.0 | 0.00 | 0.46 | 0.09 | 53 | 1009.4 |
| 20260505211118 | 51 | 317 | 3.0 | 5.0 | 0.00 | 0.46 | 0.09 | 53 | 1009.3 |
| 20260505211034 | 51 | 313 | 3.0 | 5.0 | 0.00 | 0.46 | 0.09 | 53 | 1009.3 |
| 20260505210923 | 51 | 324 | 3.0 | 5.0 | 0.00 | 0.46 | 0.09 | 53 | 1009.4 |
| 20260505210835 | 51 | 311 | 3.0 | 5.0 | 0.00 | 0.46 | 0.09 | 53 | 1009.4 |
| 20260505210704 | 51 | 311 | 3.0 | 5.0 | 0.00 | 0.46 | 0.09 | 52 | 1009.4 |
| 20260505210614 | 51 | 329 | 3.0 | 5.0 | 0.00 | 0.46 | 0.09 | 52 | 1009.4 |
| 20260505210507 | 51 | 323 | 2.0 | 6.0 | 0.00 | 0.46 | 0.09 | 51 | 1009.4 |
| 20260505210418 | 51 | 300 | 2.0 | 6.0 | 0.00 | 0.46 | 0.09 | 51 | 1009.4 |
| 20260505210332 | 51 | 281 | 3.0 | 6.0 | 0.00 | 0.46 | 0.09 | 51 | 1009.4 |
| 20260505210220 | 51 | 272 | 3.0 | 6.0 | 0.00 | 0.46 | 0.09 | 53 | 1009.4 |
| 20260505210131 | 51 | 261 | 3.0 | 5.0 | 0.00 | 0.46 | 0.09 | 52 | 1009.4 |
| 20260505210053 | 51 | 310 | 2.0 | 5.0 | 0.00 | 0.46 | 0.09 | 52 | 1009.4 |
| 20260505205905 | 51 | 296 | 2.0 | 5.0 | 0.00 | 0.46 | 0.09 | 53 | 1009.4 |
| 20260505205815 | 51 | 300 | 2.0 | 6.0 | 0.00 | 0.46 | 0.09 | 54 | 1009.4 |
| 20260505205705 | 51 | 289 | 2.0 | 6.0 | 0.00 | 0.46 | 0.09 | 54 | 1009.5 |
| 20260505205615 | 51 | 270 | 2.0 | 6.0 | 0.00 | 0.46 | 0.09 | 53 | 1009.5 |
| 20260505205526 | 51 | 307 | 1.0 | 6.0 | 0.00 | 0.46 | 0.09 | 54 | 1009.5 |
| 20260505205437 | 51 | 307 | 2.0 | 6.0 | 0.00 | 0.46 | 0.09 | 52 | 1009.5 |
| 20260505205308 | 51 | 307 | 2.0 | 8.0 | 0.00 | 0.46 | 0.09 | 51 | 1009.4 |
| 20260505205218 | 51 | 296 | 2.0 | 8.0 | 0.00 | 0.46 | 0.09 | 51 | 1009.5 |
| 20260505205109 | 51 | 280 | 4.0 | 8.0 | 0.00 | 0.46 | 0.09 | 51 | 1009.5 |
| 20260505205004 | 51 | 290 | 4.0 | 8.0 | 0.00 | 0.46 | 0.09 | 52 | 1009.5 |
| 20260505204916 | 51 | 301 | 3.0 | 8.0 | 0.00 | 0.46 | 0.09 | 52 | 1009.4 |
| 20260505204826 | 51 | 294 | 3.0 | 8.0 | 0.00 | 0.46 | 0.09 | 52 | 1009.5 |
| 20260505204716 | 51 | 288 | 3.0 | 8.0 | 0.00 | 0.46 | 0.09 | 52 | 1009.4 |
| 20260505204606 | 51 | 291 | 3.0 | 8.0 | 0.00 | 0.46 | 0.09 | 51 | 1009.3 |
| 20260505204528 | 51 | 290 | 3.0 | 8.0 | 0.00 | 0.46 | 0.09 | 51 | 1009.3 |
| 20260505204416 | 51 | 294 | 3.0 | 8.0 | 0.00 | 0.46 | 0.09 | 52 | 1009.3 |
| 20260505204306 | 51 | 304 | 4.0 | 8.0 | 0.00 | 0.46 | 0.09 | 52 | 1009.2 |
| 20260505204216 | 51 | 315 | 4.0 | 8.0 | 0.00 | 0.46 | 0.09 | 53 | 1009.3 |
| 20260505204112 | 51 | 313 | 3.0 | 8.0 | 0.00 | 0.46 | 0.09 | 52 | 1009.2 |
| 20260505204003 | 51 | 323 | 2.0 | 8.0 | 0.00 | 0.46 | 0.09 | 50 | 1009.2 |
| 20260505203914 | 51 | 323 | 3.0 | 8.0 | 0.00 | 0.46 | 0.09 | 50 | 1009.2 |
| 20260505203804 | 51 | 298 | 3.0 | 10.0 | 0.00 | 0.46 | 0.09 | 52 | 1009.3 |
| 20260505203715 | 51 | 292 | 3.0 | 10.0 | 0.00 | 0.46 | 0.09 | 53 | 1009.4 |
| 20260505203605 | 51 | 309 | 4.0 | 10.0 | 0.00 | 0.46 | 0.09 | 52 | 1009.3 |
| 20260505203515 | 51 | 277 | 5.0 | 10.0 | 0.00 | 0.46 | 0.09 | 51 | 1009.4 |
| 20260505203408 | 51 | 301 | 5.0 | 10.0 | 0.00 | 0.46 | 0.09 | 51 | 1009.4 |
| 20260505203305 | 51 | 294 | 4.0 | 10.0 | 0.00 | 0.46 | 0.09 | 50 | 1009.4 |
| 20260505203215 | 51 | 309 | 4.0 | 10.0 | 0.00 | 0.46 | 0.09 | 50 | 1009.4 |
| 20260505203126 | 51 | 279 | 4.0 | 10.0 | 0.00 | 0.46 | 0.09 | 50 | 1009.4 |
| 20260505203048 | 51 | 297 | 4.0 | 10.0 | 0.00 | 0.46 | 0.09 | 50 | 1009.4 |
| 20260505202937 | 51 | 310 | 3.0 | 9.0 | 0.00 | 0.46 | 0.09 | 52 | 1009.3 |
| 20260505202807 | 51 | 286 | 4.0 | 9.0 | 0.00 | 0.46 | 0.09 | 52 | 1009.4 |
| 20260505202717 | 51 | 281 | 4.0 | 9.0 | 0.00 | 0.46 | 0.09 | 52 | 1009.4 |
| 20260505202607 | 51 | 298 | 3.0 | 8.0 | 0.00 | 0.46 | 0.09 | 52 | 1009.5 |
| 20260505202518 | 51 | 296 | 3.0 | 8.0 | 0.00 | 0.46 | 0.09 | 53 | 1009.4 |
| 20260505202428 | 51 | 282 | 3.0 | 8.0 | 0.00 | 0.46 | 0.09 | 53 | 1009.5 |
| 20260505202340 | 51 | 282 | 2.0 | 8.0 | 0.00 | 0.46 | 0.09 | 52 | 1009.4 |
| 20260505202233 | 51 | 296 | 4.0 | 8.0 | 0.00 | 0.46 | 0.09 | 51 | 1009.4 |
| 20260505202123 | 51 | 287 | 4.0 | 9.0 | 0.00 | 0.46 | 0.09 | 52 | 1009.5 |
| 20260505202034 | 51 | 300 | 2.0 | 9.0 | 0.00 | 0.46 | 0.09 | 53 | 1009.5 |
| 20260505201926 | 51 | 259 | 2.0 | 9.0 | 0.00 | 0.46 | 0.09 | 55 | 1009.6 |
| 20260505201835 | 51 | 278 | 2.0 | 9.0 | 0.00 | 0.46 | 0.09 | 53 | 1009.5 |
| 20260505201726 | 51 | 267 | 3.0 | 9.0 | 0.00 | 0.46 | 0.09 | 52 | 1009.6 |
| 20260505201637 | 51 | 244 | 4.0 | 9.0 | 0.00 | 0.46 | 0.09 | 53 | 1009.6 |
| 20260505201538 | 51 | 263 | 4.0 | 9.0 | 0.00 | 0.46 | 0.09 | 52 | 1009.5 |
| 20260505201409 | 51 | 263 | 4.0 | 9.0 | 0.00 | 0.46 | 0.09 | 53 | 1009.6 |
| 20260505201301 | 51 | 289 | 3.0 | 7.0 | 0.00 | 0.46 | 0.09 | 54 | 1009.5 |
| 20260505201212 | 51 | 291 | 3.0 | 9.0 | 0.00 | 0.46 | 0.09 | 55 | 1009.5 |
| 20260505201127 | 51 | 287 | 3.0 | 9.0 | 0.00 | 0.46 | 0.09 | 53 | 1009.5 |
| 20260505201037 | 51 | 344 | 3.0 | 9.0 | 0.00 | 0.46 | 0.09 | 52 | 1009.5 |
| 20260505200907 | 51 | 318 | 3.0 | 9.0 | 0.00 | 0.46 | 0.09 | 52 | 1009.5 |
| 20260505200817 | 51 | 346 | 4.0 | 9.0 | 0.00 | 0.46 | 0.09 | 52 | 1009.5 |
| 20260505200708 | 51 | 340 | 4.0 | 9.0 | 0.00 | 0.46 | 0.09 | 51 | 1009.6 |
| 20260505200619 | 51 | 309 | 4.0 | 9.0 | 0.00 | 0.46 | 0.09 | 53 | 1009.5 |
| 20260505200530 | 51 | 340 | 4.0 | 9.0 | 0.00 | 0.46 | 0.09 | 53 | 1009.6 |
| 20260505200419 | 51 | 5 | 5.0 | 9.0 | 0.00 | 0.46 | 0.09 | 50 | 1009.6 |
| 20260505200333 | 51 | 301 | 4.0 | 9.0 | 0.00 | 0.46 | 0.09 | 51 | 1009.6 |
| 20260505200222 | 51 | 307 | 2.0 | 9.0 | 0.00 | 0.46 | 0.09 | 55 | 1009.5 |
| 20260505200107 | 51 | 307 | 3.0 | 9.0 | 0.00 | 0.46 | 0.09 | 52 | 1009.6 |
| 20260505195957 | 51 | 312 | 4.0 | 9.0 | 0.00 | 0.46 | 0.09 | 49 | 1009.5 |
| 20260505195846 | 51 | 303 | 3.0 | 9.0 | 0.00 | 0.46 | 0.09 | 50 | 1009.5 |
| 20260505195734 | 51 | 335 | 3.0 | 9.0 | 0.00 | 0.46 | 0.09 | 50 | 1009.7 |
| 20260505195645 | 51 | 309 | 4.0 | 9.0 | 0.00 | 0.46 | 0.09 | 53 | 1009.6 |
| 20260505195534 | 51 | 281 | 5.0 | 9.0 | 0.00 | 0.46 | 0.09 | 52 | 1009.6 |
| 20260505195446 | 51 | 329 | 5.0 | 9.0 | 0.00 | 0.46 | 0.09 | 51 | 1009.6 |
| 20260505195356 | 51 | 284 | 4.0 | 7.0 | 0.00 | 0.46 | 0.09 | 53 | 1009.7 |
| 20260505195246 | 51 | 323 | 4.0 | 6.0 | 0.00 | 0.46 | 0.09 | 53 | 1009.7 |
| 20260505195157 | 51 | 313 | 4.0 | 7.0 | 0.00 | 0.46 | 0.09 | 53 | 1009.8 |
| 20260505195026 | 51 | 284 | 2.0 | 7.0 | 0.00 | 0.46 | 0.09 | 53 | 1009.8 |
| 20260505194936 | 51 | 237 | 2.0 | 7.0 | 0.00 | 0.46 | 0.09 | 53 | 1009.8 |
| 20260505194810 | 51 | 237 | 3.0 | 7.0 | 0.00 | 0.46 | 0.09 | 53 | 1009.8 |
| 20260505194702 | 51 | 296 | 3.0 | 7.0 | 0.00 | 0.46 | 0.09 | 53 | 1009.7 |
| 20260505194613 | 51 | 310 | 4.0 | 7.0 | 0.00 | 0.46 | 0.09 | 52 | 1009.8 |
| 20260505194536 | 51 | 286 | 3.0 | 7.0 | 0.00 | 0.46 | 0.09 | 50 | 1009.8 |
| 20260505194405 | 51 | 316 | 3.0 | 8.0 | 0.00 | 0.46 | 0.09 | 54 | 1009.8 |
| 20260505194317 | 51 | 315 | 2.0 | 9.0 | 0.00 | 0.46 | 0.09 | 52 | 1009.7 |
| 20260505194227 | 51 | 261 | 2.0 | 9.0 | 0.00 | 0.46 | 0.09 | 54 | 1009.8 |
| 20260505194138 | 51 | 269 | 2.0 | 9.0 | 0.00 | 0.46 | 0.09 | 52 | 1009.8 |
| 20260505194026 | 51 | 283 | 2.0 | 9.0 | 0.00 | 0.46 | 0.09 | 52 | 1009.7 |
| 20260505193936 | 51 | 267 | 2.0 | 9.0 | 0.00 | 0.46 | 0.09 | 54 | 1009.8 |
| 20260505193811 | 51 | 255 | 3.0 | 9.0 | 0.00 | 0.46 | 0.09 | 52 | 1009.8 |
| 20260505193702 | 51 | 290 | 4.0 | 9.0 | 0.00 | 0.46 | 0.09 | 51 | 1009.8 |
| 20260505193613 | 51 | 295 | 5.0 | 9.0 | 0.00 | 0.46 | 0.09 | 50 | 1009.7 |
| 20260505193505 | 51 | 291 | 6.0 | 9.0 | 0.00 | 0.46 | 0.09 | 50 | 1009.8 |
| 20260505193415 | 51 | 302 | 5.0 | 8.0 | 0.00 | 0.46 | 0.09 | 50 | 1009.8 |
| 20260505193327 | 51 | 264 | 3.0 | 8.0 | 0.00 | 0.46 | 0.09 | 50 | 1009.8 |
| 20260505193237 | 51 | 302 | 1.0 | 7.0 | 0.00 | 0.46 | 0.09 | 50 | 1009.8 |
| 20260505193106 | 50 | 304 | 2.0 | 7.0 | 0.00 | 0.46 | 0.09 | 50 | 1009.8 |
| 20260505193028 | 50 | 286 | 3.0 | 7.0 | 0.00 | 0.46 | 0.09 | 51 | 1009.8 |
| 20260505192902 | 50 | 284 | 4.0 | 7.0 | 0.00 | 0.46 | 0.09 | 51 | 1009.8 |
| 20260505192814 | 50 | 295 | 3.0 | 7.0 | 0.00 | 0.46 | 0.09 | 52 | 1009.9 |
| 20260505192704 | 50 | 284 | 3.0 | 7.0 | 0.00 | 0.46 | 0.09 | 51 | 1009.9 |
| 20260505192615 | 50 | 279 | 3.0 | 7.0 | 0.00 | 0.46 | 0.09 | 52 | 1009.8 |
| 20260505192506 | 50 | 273 | 2.0 | 7.0 | 0.00 | 0.46 | 0.09 | 53 | 1009.9 |
| 20260505192417 | 50 | 295 | 3.0 | 7.0 | 0.00 | 0.46 | 0.09 | 52 | 1010.0 |
| 20260505192310 | 50 | 294 | 4.0 | 7.0 | 0.00 | 0.46 | 0.09 | 51 | 1009.8 |
| 20260505192158 | 50 | 272 | 4.0 | 7.0 | 0.00 | 0.46 | 0.09 | 51 | 1009.9 |
| 20260505192111 | 50 | 299 | 4.0 | 6.0 | 0.00 | 0.46 | 0.09 | 50 | 1009.9 |
| 20260505192005 | 50 | 307 | 4.0 | 7.0 | 0.00 | 0.46 | 0.09 | 50 | 1009.9 |
| 20260505191916 | 50 | 306 | 4.0 | 7.0 | 0.00 | 0.46 | 0.09 | 51 | 1009.9 |
| 20260505191826 | 50 | 282 | 3.0 | 7.0 | 0.00 | 0.46 | 0.09 | 51 | 1009.8 |
| 20260505191716 | 50 | 290 | 2.0 | 8.0 | 0.00 | 0.46 | 0.09 | 51 | 1009.9 |
| 20260505191607 | 50 | 296 | 2.0 | 8.0 | 0.00 | 0.46 | 0.09 | 52 | 1009.9 |
| 20260505191527 | 50 | 296 | 2.0 | 8.0 | 0.00 | 0.46 | 0.09 | 52 | 1009.9 |
| 20260505191416 | 50 | 296 | 3.0 | 9.0 | 0.00 | 0.46 | 0.09 | 53 | 1009.9 |
| 20260505191307 | 50 | 276 | 2.0 | 9.0 | 0.00 | 0.46 | 0.09 | 53 | 1010.0 |
| 20260505191159 | 50 | 293 | 3.0 | 9.0 | 0.00 | 0.46 | 0.09 | 53 | 1010.0 |
| 20260505191115 | 50 | 293 | 4.0 | 9.0 | 0.00 | 0.46 | 0.09 | 50 | 1010.0 |
| 20260505191006 | 50 | 281 | 4.0 | 9.0 | 0.00 | 0.46 | 0.09 | 50 | 1010.0 |
| 20260505190917 | 50 | 294 | 3.0 | 9.0 | 0.00 | 0.46 | 0.09 | 51 | 1010.0 |
| 20260505190809 | 50 | 294 | 4.0 | 9.0 | 0.00 | 0.46 | 0.09 | 50 | 1010.0 |
| 20260505190719 | 50 | 298 | 5.0 | 9.0 | 0.00 | 0.46 | 0.09 | 50 | 1010.0 |
| 20260505190609 | 50 | 285 | 4.0 | 9.0 | 0.00 | 0.46 | 0.09 | 50 | 1010.0 |
| 20260505190521 | 50 | 263 | 3.0 | 9.0 | 0.00 | 0.46 | 0.09 | 51 | 1010.0 |
| 20260505190432 | 50 | 286 | 3.0 | 9.0 | 0.00 | 0.46 | 0.09 | 50 | 1010.0 |
| 20260505190304 | 50 | 273 | 4.0 | 9.0 | 0.00 | 0.46 | 0.09 | 48 | 1009.9 |
| 20260505190214 | 50 | 243 | 6.0 | 9.0 | 0.00 | 0.46 | 0.09 | 49 | 1010.0 |
| 20260505190108 | 50 | 277 | 5.0 | 9.0 | 0.00 | 0.46 | 0.09 | 50 | 1010.0 |
| 20260505190031 | 50 | 283 | 4.0 | 7.0 | 0.00 | 0.46 | 0.09 | 52 | 1009.9 |
| 20260505185902 | 50 | 304 | 4.0 | 7.0 | 0.00 | 0.46 | 0.09 | 52 | 1009.8 |
| 20260505185813 | 50 | 311 | 3.0 | 6.0 | 0.00 | 0.46 | 0.09 | 52 | 1010.0 |
| 20260505185705 | 50 | 321 | 3.0 | 6.0 | 0.00 | 0.46 | 0.09 | 52 | 1010.0 |
| 20260505185615 | 50 | 302 | 4.0 | 6.0 | 0.00 | 0.46 | 0.09 | 52 | 1010.1 |
| 20260505185506 | 50 | 304 | 4.0 | 6.0 | 0.00 | 0.46 | 0.09 | 50 | 1010.0 |
| 20260505185417 | 50 | 360 | 3.0 | 6.0 | 0.00 | 0.46 | 0.09 | 52 | 1010.0 |
| 20260505185312 | 50 | 305 | 4.0 | 6.0 | 0.00 | 0.46 | 0.09 | 50 | 1009.9 |
| 20260505185201 | 50 | 300 | 3.0 | 7.0 | 0.00 | 0.46 | 0.09 | 49 | 1010.0 |
| 20260505185113 | 50 | 273 | 3.0 | 7.0 | 0.00 | 0.46 | 0.09 | 49 | 1010.0 |
| 20260505185003 | 50 | 271 | 4.0 | 7.0 | 0.00 | 0.46 | 0.09 | 48 | 1010.0 |
| 20260505184915 | 50 | 294 | 4.0 | 7.0 | 0.00 | 0.46 | 0.09 | 47 | 1010.0 |
| 20260505184806 | 50 | 323 | 4.0 | 10.0 | 0.00 | 0.46 | 0.09 | 50 | 1009.8 |
| 20260505184717 | 50 | 305 | 5.0 | 10.0 | 0.00 | 0.46 | 0.09 | 48 | 1009.9 |
| 20260505184609 | 50 | 317 | 4.0 | 10.0 | 0.00 | 0.46 | 0.09 | 48 | 1010.0 |
| 20260505184531 | 50 | 308 | 4.0 | 10.0 | 0.00 | 0.46 | 0.09 | 48 | 1009.9 |
| 20260505184405 | 50 | 327 | 3.0 | 10.0 | 0.00 | 0.46 | 0.09 | 48 | 1009.9 |
| 20260505184316 | 50 | 306 | 3.0 | 10.0 | 0.00 | 0.46 | 0.09 | 49 | 1010.0 |
| 20260505184209 | 50 | 295 | 4.0 | 10.0 | 0.00 | 0.46 | 0.09 | 50 | 1010.0 |
| 20260505184059 | 50 | 308 | 7.0 | 10.0 | 0.00 | 0.46 | 0.09 | 48 | 1010.0 |
| 20260505184012 | 50 | 307 | 7.0 | 10.0 | 0.00 | 0.46 | 0.09 | 47 | 1010.0 |
| 20260505183922 | 50 | 307 | 4.0 | 9.0 | 0.00 | 0.46 | 0.09 | 49 | 1010.0 |
| 20260505183811 | 50 | 281 | 3.0 | 8.0 | 0.00 | 0.46 | 0.09 | 50 | 1010.0 |
| 20260505183702 | 50 | 288 | 3.0 | 8.0 | 0.00 | 0.46 | 0.09 | 49 | 1010.0 |
| 20260505183612 | 50 | 300 | 3.0 | 8.0 | 0.00 | 0.46 | 0.09 | 50 | 1009.9 |
| 20260505183526 | 50 | 302 | 4.0 | 8.0 | 0.00 | 0.46 | 0.09 | 50 | 1009.9 |
| 20260505183437 | 50 | 288 | 5.0 | 8.0 | 0.00 | 0.46 | 0.09 | 48 | 1009.9 |
| 20260505183330 | 50 | 297 | 6.0 | 8.0 | 0.00 | 0.46 | 0.09 | 48 | 1009.8 |
| 20260505183238 | 50 | 296 | 3.0 | 8.0 | 0.00 | 0.46 | 0.09 | 52 | 1009.8 |
| 20260505183107 | 50 | 294 | 2.0 | 8.0 | 0.00 | 0.46 | 0.09 | 51 | 1009.8 |
| 20260505183030 | 50 | 292 | 3.0 | 8.0 | 0.00 | 0.46 | 0.09 | 48 | 1009.8 |
| 20260505182900 | 51 | 310 | 4.0 | 8.0 | 0.00 | 0.46 | 0.09 | 49 | 1009.8 |
| 20260505182811 | 51 | 294 | 3.0 | 8.0 | 0.00 | 0.46 | 0.09 | 49 | 1009.8 |
| 20260505182702 | 51 | 244 | 4.0 | 8.0 | 0.00 | 0.46 | 0.09 | 48 | 1009.8 |
| 20260505182612 | 51 | 310 | 5.0 | 8.0 | 0.00 | 0.46 | 0.09 | 48 | 1009.8 |
| 20260505182508 | 51 | 295 | 4.0 | 8.0 | 0.00 | 0.46 | 0.09 | 49 | 1009.7 |
| 20260505182418 | 51 | 289 | 4.0 | 8.0 | 0.00 | 0.46 | 0.09 | 52 | 1009.7 |
| 20260505182328 | 51 | 308 | 6.0 | 9.0 | 0.00 | 0.46 | 0.09 | 51 | 1009.8 |
| 20260505182158 | 51 | 313 | 4.0 | 9.0 | 0.00 | 0.46 | 0.09 | 51 | 1009.8 |
| 20260505182109 | 51 | 313 | 3.0 | 9.0 | 0.00 | 0.46 | 0.09 | 54 | 1009.7 |
| 20260505182001 | 51 | 327 | 2.0 | 9.0 | 0.00 | 0.46 | 0.09 | 54 | 1009.6 |
| 20260505181912 | 51 | 252 | 2.0 | 9.0 | 0.00 | 0.46 | 0.09 | 53 | 1009.7 |
| 20260505181802 | 51 | 311 | 3.0 | 9.0 | 0.00 | 0.46 | 0.09 | 50 | 1009.7 |
| 20260505181713 | 51 | 226 | 5.0 | 9.0 | 0.00 | 0.46 | 0.09 | 49 | 1009.8 |
| 20260505181607 | 51 | 269 | 6.0 | 9.0 | 0.00 | 0.46 | 0.09 | 49 | 1009.8 |
| 20260505181530 | 51 | 313 | 5.0 | 9.0 | 0.00 | 0.46 | 0.09 | 51 | 1009.8 |
| 20260505181400 | 51 | 281 | 3.0 | 7.0 | 0.00 | 0.46 | 0.09 | 51 | 1009.7 |
| 20260505181311 | 51 | 302 | 3.0 | 7.0 | 0.00 | 0.46 | 0.09 | 52 | 1009.7 |
| 20260505181222 | 51 | 264 | 4.0 | 9.0 | 0.00 | 0.46 | 0.09 | 52 | 1009.8 |
| 20260505181133 | 50 | 320 | 3.0 | 9.0 | 0.00 | 0.46 | 0.09 | 53 | 1009.7 |
| 20260505181002 | 50 | 305 | 3.0 | 9.0 | 0.00 | 0.46 | 0.09 | 51 | 1009.7 |
| 20260505180912 | 50 | 293 | 4.0 | 9.0 | 0.00 | 0.46 | 0.09 | 50 | 1009.7 |
| 20260505180823 | 50 | 296 | 3.0 | 9.0 | 0.00 | 0.46 | 0.09 | 49 | 1009.6 |
| 20260505180714 | 50 | 307 | 3.0 | 11.0 | 0.00 | 0.46 | 0.09 | 48 | 1009.6 |
| 20260505180628 | 50 | 269 | 3.0 | 11.0 | 0.00 | 0.46 | 0.09 | 48 | 1009.6 |
| 20260505180538 | 50 | 271 | 5.0 | 11.0 | 0.00 | 0.46 | 0.09 | 49 | 1009.6 |
| 20260505180406 | 50 | 288 | 6.0 | 11.0 | 0.00 | 0.46 | 0.09 | 48 | 1009.6 |
| 20260505180319 | 50 | 281 | 5.0 | 11.0 | 0.00 | 0.46 | 0.09 | 50 | 1009.5 |
| 20260505180209 | 50 | 280 | 4.0 | 11.0 | 0.00 | 0.46 | 0.09 | 50 | 1009.5 |
| 20260505180119 | 50 | 280 | 5.0 | 11.0 | 0.00 | 0.46 | 0.09 | 50 | 1009.5 |
| 20260505180041 | 50 | 303 | 7.0 | 11.0 | 0.00 | 0.46 | 0.09 | 49 | 1009.5 |
| 20260505175910 | 51 | 277 | 7.0 | 11.0 | 0.00 | 0.46 | 0.09 | 49 | 1009.6 |
| 20260505175800 | 51 | 284 | 5.0 | 10.0 | 0.00 | 0.46 | 0.09 | 50 | 1009.5 |
| 20260505175711 | 51 | 314 | 4.0 | 12.0 | 0.00 | 0.46 | 0.09 | 50 | 1009.4 |
| 20260505175607 | 51 | 290 | 5.0 | 12.0 | 0.00 | 0.46 | 0.09 | 49 | 1009.4 |
| 20260505175516 | 51 | 304 | 5.0 | 12.0 | 0.00 | 0.46 | 0.09 | 48 | 1009.3 |
| 20260505175408 | 51 | 309 | 4.0 | 12.0 | 0.00 | 0.46 | 0.09 | 51 | 1009.2 |
| 20260505175318 | 51 | 294 | 5.0 | 12.0 | 0.00 | 0.46 | 0.09 | 51 | 1009.2 |
| 20260505175210 | 51 | 279 | 6.0 | 12.0 | 0.00 | 0.46 | 0.09 | 51 | 1009.3 |
| 20260505175121 | 51 | 273 | 6.0 | 12.0 | 0.00 | 0.46 | 0.09 | 51 | 1009.2 |
| 20260505175032 | 51 | 262 | 6.0 | 12.0 | 0.00 | 0.46 | 0.09 | 49 | 1009.2 |
| 20260505174943 | 51 | 301 | 6.0 | 12.0 | 0.00 | 0.46 | 0.09 | 51 | 1009.1 |
| 20260505174833 | 51 | 309 | 6.0 | 12.0 | 0.00 | 0.46 | 0.09 | 51 | 1009.2 |
| 20260505174743 | 51 | 309 | 3.0 | 10.0 | 0.00 | 0.46 | 0.09 | 51 | 1009.4 |
| 20260505174637 | 51 | 313 | 3.0 | 10.0 | 0.00 | 0.46 | 0.09 | 52 | 1009.4 |
| 20260505174559 | 51 | 288 | 4.0 | 10.0 | 0.00 | 0.46 | 0.09 | 51 | 1009.3 |
| 20260505174407 | 51 | 295 | 7.0 | 10.0 | 0.00 | 0.46 | 0.09 | 49 | 1009.3 |
| 20260505174317 | 51 | 269 | 7.0 | 10.0 | 0.00 | 0.46 | 0.09 | 50 | 1009.3 |
| 20260505174208 | 51 | 296 | 5.0 | 10.0 | 0.00 | 0.46 | 0.09 | 52 | 1009.3 |
| 20260505174059 | 51 | 293 | 6.0 | 10.0 | 0.00 | 0.46 | 0.09 | 52 | 1009.4 |
| 20260505174009 | 51 | 318 | 6.0 | 10.0 | 0.00 | 0.46 | 0.09 | 53 | 1009.4 |
| 20260505173920 | 51 | 304 | 4.0 | 10.0 | 0.00 | 0.46 | 0.09 | 55 | 1009.4 |
| 20260505173810 | 51 | 304 | 3.0 | 10.0 | 0.00 | 0.46 | 0.09 | 55 | 1009.4 |
| 20260505173705 | 51 | 342 | 3.0 | 10.0 | 0.00 | 0.46 | 0.09 | 56 | 1009.3 |
| 20260505173615 | 51 | 298 | 4.0 | 10.0 | 0.00 | 0.46 | 0.09 | 54 | 1009.3 |
| 20260505173525 | 51 | 344 | 4.0 | 10.0 | 0.00 | 0.46 | 0.09 | 53 | 1009.4 |
| 20260505173437 | 51 | 328 | 6.0 | 10.0 | 0.00 | 0.46 | 0.09 | 52 | 1009.4 |
| 20260505173308 | 51 | 277 | 6.0 | 10.0 | 0.00 | 0.46 | 0.09 | 51 | 1009.3 |
| 20260505173217 | 51 | 296 | 5.0 | 9.0 | 0.00 | 0.46 | 0.09 | 53 | 1009.3 |
| 20260505173109 | 51 | 317 | 4.0 | 9.0 | 0.00 | 0.46 | 0.09 | 53 | 1009.4 |
| 20260505173030 | 51 | 303 | 4.0 | 9.0 | 0.00 | 0.46 | 0.09 | 53 | 1009.3 |
| 20260505172901 | 51 | 296 | 6.0 | 9.0 | 0.00 | 0.46 | 0.09 | 51 | 1009.2 |
| 20260505172811 | 51 | 302 | 7.0 | 9.0 | 0.00 | 0.46 | 0.09 | 52 | 1009.3 |
| 20260505172725 | 51 | 317 | 6.0 | 10.0 | 0.00 | 0.46 | 0.09 | 53 | 1009.2 |
| 20260505172636 | 51 | 313 | 4.0 | 10.0 | 0.00 | 0.46 | 0.09 | 56 | 1009.1 |
| 20260505172506 | 51 | 304 | 3.0 | 11.0 | 0.00 | 0.46 | 0.09 | 57 | 1009.2 |
| 20260505172416 | 51 | 302 | 4.0 | 11.0 | 0.00 | 0.46 | 0.09 | 57 | 1009.1 |
| 20260505172306 | 51 | 323 | 4.0 | 11.0 | 0.00 | 0.46 | 0.09 | 54 | 1009.2 |
| 20260505172216 | 51 | 303 | 5.0 | 11.0 | 0.00 | 0.46 | 0.09 | 54 | 1009.1 |
| 20260505172107 | 51 | 317 | 7.0 | 11.0 | 0.00 | 0.46 | 0.09 | 55 | 1009.1 |
| 20260505172016 | 51 | 329 | 7.0 | 11.0 | 0.00 | 0.46 | 0.09 | 54 | 1009.1 |
| 20260505171908 | 51 | 295 | 7.0 | 11.0 | 0.00 | 0.46 | 0.09 | 53 | 1009.1 |
| 20260505171823 | 51 | 309 | 7.0 | 11.0 | 0.00 | 0.46 | 0.09 | 53 | 1009.1 |
| 20260505171733 | 51 | 310 | 6.0 | 11.0 | 0.00 | 0.46 | 0.09 | 59 | 1009.1 |
| 20260505171644 | 51 | 291 | 4.0 | 10.0 | 0.00 | 0.46 | 0.09 | 59 | 1009.1 |
| 20260505171607 | 51 | 346 | 3.0 | 10.0 | 0.00 | 0.46 | 0.09 | 59 | 1009.1 |
| 20260505171435 | 51 | 321 | 3.0 | 10.0 | 0.00 | 0.46 | 0.09 | 60 | 1009.2 |
| 20260505171324 | 51 | 321 | 3.0 | 10.0 | 0.00 | 0.46 | 0.09 | 58 | 1009.2 |
| 20260505171235 | 51 | 294 | 2.0 | 10.0 | 0.00 | 0.46 | 0.09 | 57 | 1009.2 |
| 20260505171104 | 51 | 319 | 4.0 | 10.0 | 0.00 | 0.46 | 0.09 | 57 | 1009.2 |
| 20260505171015 | 51 | 301 | 6.0 | 10.0 | 0.00 | 0.46 | 0.09 | 58 | 1009.3 |
| 20260505170925 | 51 | 286 | 7.0 | 10.0 | 0.00 | 0.46 | 0.09 | 57 | 1009.2 |
| 20260505170835 | 51 | 305 | 7.0 | 10.0 | 0.00 | 0.46 | 0.09 | 59 | 1009.2 |
| 20260505170709 | 51 | 296 | 7.0 | 10.0 | 0.00 | 0.46 | 0.09 | 62 | 1009.1 |
| 20260505170620 | 51 | 331 | 5.0 | 10.0 | 0.00 | 0.46 | 0.09 | 62 | 1009.1 |
| 20260505170530 | 51 | 14 | 4.0 | 10.0 | 0.00 | 0.46 | 0.09 | 60 | 1009.2 |
| 20260505170440 | 51 | 80 | 3.0 | 10.0 | 0.00 | 0.46 | 0.09 | 62 | 1009.2 |
| 20260505170352 | 51 | 337 | 5.0 | 10.0 | 0.00 | 0.46 | 0.09 | 62 | 1009.1 |
| 20260505170239 | 51 | 330 | 6.0 | 10.0 | 0.00 | 0.46 | 0.09 | 60 | 1009.2 |
| 20260505170148 | 51 | 288 | 6.0 | 11.0 | 0.00 | 0.46 | 0.09 | 60 | 1009.2 |
| 20260505170110 | 51 | 333 | 6.0 | 11.0 | 0.00 | 0.46 | 0.09 | 63 | 1009.1 |
| 20260505165938 | 51 | 17 | 3.0 | 11.0 | 0.00 | 0.46 | 0.09 | 62 | 1009.1 |
| 20260505165829 | 51 | 302 | 2.0 | 15.0 | 0.00 | 0.46 | 0.09 | 62 | 1009.1 |
| 20260505165718 | 51 | 251 | 3.0 | 15.0 | 0.00 | 0.46 | 0.09 | 61 | 1009.1 |
| 20260505165608 | 51 | 281 | 4.0 | 15.0 | 0.00 | 0.46 | 0.09 | 63 | 1009.1 |
| 20260505165503 | 51 | 302 | 5.0 | 15.0 | 0.00 | 0.46 | 0.09 | 63 | 1009.1 |
| 20260505165414 | 51 | 251 | 5.0 | 15.0 | 0.00 | 0.46 | 0.09 | 61 | 1009.1 |
| 20260505165306 | 51 | 275 | 6.0 | 15.0 | 0.00 | 0.46 | 0.09 | 62 | 1009.1 |
| 20260505165216 | 50 | 280 | 7.0 | 15.0 | 0.00 | 0.46 | 0.09 | 65 | 1009.1 |
| 20260505165106 | 50 | 304 | 8.0 | 15.0 | 0.00 | 0.46 | 0.09 | 62 | 1009.0 |
| 20260505165017 | 50 | 314 | 8.0 | 15.0 | 0.00 | 0.46 | 0.09 | 62 | 1009.1 |
| 20260505164927 | 50 | 288 | 6.0 | 10.0 | 0.00 | 0.46 | 0.09 | 64 | 1009.1 |
| 20260505164817 | 50 | 298 | 4.0 | 10.0 | 0.00 | 0.46 | 0.09 | 63 | 1009.1 |
| 20260505164727 | 50 | 301 | 3.0 | 10.0 | 0.00 | 0.46 | 0.09 | 64 | 1009.1 |
| 20260505164600 | 50 | 309 | 5.0 | 10.0 | 0.00 | 0.46 | 0.09 | 63 | 1009.1 |
| 20260505164522 | 50 | 313 | 6.0 | 10.0 | 0.00 | 0.46 | 0.09 | 62 | 1009.1 |
| 20260505164413 | 50 | 314 | 6.0 | 10.0 | 0.00 | 0.46 | 0.09 | 62 | 1009.0 |
| 20260505164324 | 50 | 316 | 6.0 | 10.0 | 0.00 | 0.46 | 0.09 | 62 | 1009.1 |
| 20260505164235 | 50 | 246 | 5.0 | 9.0 | 0.00 | 0.46 | 0.09 | 62 | 1009.0 |
| 20260505164104 | 50 | 291 | 4.0 | 9.0 | 0.00 | 0.46 | 0.09 | 64 | 1009.0 |
| 20260505164016 | 50 | 317 | 4.0 | 9.0 | 0.00 | 0.46 | 0.09 | 65 | 1008.9 |
| 20260505163906 | 49 | 315 | 5.0 | 10.0 | 0.00 | 0.46 | 0.09 | 65 | 1009.0 |
| 20260505163817 | 50 | 301 | 6.0 | 10.0 | 0.00 | 0.46 | 0.09 | 63 | 1009.0 |
| 20260505163709 | 50 | 294 | 6.0 | 10.0 | 0.00 | 0.46 | 0.09 | 66 | 1008.9 |
| 20260505163603 | 50 | 324 | 6.0 | 10.0 | 0.00 | 0.46 | 0.09 | 65 | 1008.9 |
| 20260505163514 | 49 | 273 | 5.0 | 10.0 | 0.00 | 0.46 | 0.09 | 67 | 1008.8 |
| 20260505163405 | 49 | 325 | 5.0 | 10.0 | 0.00 | 0.46 | 0.09 | 66 | 1008.9 |
| 20260505163319 | 49 | 299 | 5.0 | 10.0 | 0.00 | 0.46 | 0.09 | 65 | 1008.9 |
| 20260505163227 | 49 | 339 | 6.0 | 10.0 | 0.00 | 0.46 | 0.09 | 66 | 1008.9 |
| 20260505163139 | 49 | 335 | 6.0 | 10.0 | 0.00 | 0.46 | 0.09 | 69 | 1008.9 |
| 20260505163039 | 49 | 326 | 5.0 | 11.0 | 0.00 | 0.46 | 0.09 | 69 | 1008.9 |
| 20260505162909 | 49 | 355 | 4.0 | 11.0 | 0.00 | 0.46 | 0.09 | 71 | 1009.0 |
| 20260505162821 | 49 | 347 | 4.0 | 11.0 | 0.00 | 0.46 | 0.09 | 71 | 1008.9 |
| 20260505162712 | 49 | 10 | 4.0 | 11.0 | 0.00 | 0.46 | 0.09 | 71 | 1009.0 |
| 20260505162609 | 49 | 331 | 4.0 | 11.0 | 0.00 | 0.46 | 0.09 | 68 | 1008.9 |
| 20260505162459 | 49 | 332 | 6.0 | 11.0 | 0.00 | 0.46 | 0.09 | 68 | 1008.8 |
| 20260505162411 | 49 | 323 | 7.0 | 11.0 | 0.00 | 0.46 | 0.09 | 67 | 1008.8 |
| 20260505162321 | 49 | 283 | 7.0 | 11.0 | 0.00 | 0.46 | 0.09 | 67 | 1008.8 |
| 20260505162234 | 49 | 285 | 6.0 | 11.0 | 0.00 | 0.46 | 0.09 | 68 | 1008.8 |
| 20260505162125 | 49 | 317 | 5.0 | 9.0 | 0.00 | 0.46 | 0.09 | 68 | 1008.7 |
| 20260505162035 | 49 | 314 | 4.0 | 12.0 | 0.00 | 0.46 | 0.09 | 71 | 1008.7 |
| 20260505161925 | 49 | 296 | 4.0 | 12.0 | 0.00 | 0.46 | 0.09 | 71 | 1008.7 |
| 20260505161835 | 49 | 340 | 5.0 | 12.0 | 0.00 | 0.46 | 0.09 | 71 | 1008.8 |
| 20260505161705 | 49 | 290 | 4.0 | 12.0 | 0.00 | 0.46 | 0.09 | 71 | 1008.7 |
| 20260505161601 | 49 | 355 | 4.0 | 12.0 | 0.00 | 0.46 | 0.09 | 71 | 1008.7 |
| 20260505161523 | 49 | 324 | 5.0 | 12.0 | 0.00 | 0.46 | 0.09 | 72 | 1008.7 |
| 20260505161411 | 49 | 295 | 6.0 | 12.0 | 0.00 | 0.46 | 0.09 | 68 | 1008.7 |
| 20260505161302 | 49 | 315 | 6.0 | 12.0 | 0.00 | 0.46 | 0.09 | 70 | 1008.7 |
| 20260505161212 | 49 | 9 | 5.0 | 10.0 | 0.00 | 0.46 | 0.09 | 73 | 1008.7 |
| 20260505161102 | 49 | 334 | 5.0 | 9.0 | 0.00 | 0.46 | 0.09 | 73 | 1008.8 |
| 20260505161013 | 49 | 317 | 5.0 | 11.0 | 0.00 | 0.46 | 0.09 | 73 | 1008.8 |
| 20260505160904 | 48 | 275 | 4.0 | 11.0 | 0.00 | 0.46 | 0.09 | 72 | 1008.8 |
| 20260505160815 | 48 | 289 | 4.0 | 11.0 | 0.00 | 0.46 | 0.09 | 72 | 1008.8 |
| 20260505160730 | 48 | 296 | 5.0 | 11.0 | 0.00 | 0.46 | 0.09 | 70 | 1008.7 |
| 20260505160601 | 48 | 317 | 5.0 | 11.0 | 0.00 | 0.46 | 0.09 | 69 | 1008.7 |
| 20260505160510 | 48 | 321 | 4.0 | 11.0 | 0.00 | 0.46 | 0.09 | 71 | 1008.7 |
| 20260505160401 | 48 | 308 | 4.0 | 11.0 | 0.00 | 0.46 | 0.09 | 71 | 1008.7 |
| 20260505160314 | 48 | 323 | 6.0 | 11.0 | 0.00 | 0.46 | 0.09 | 71 | 1008.7 |
| 20260505160203 | 48 | 295 | 7.0 | 11.0 | 0.00 | 0.46 | 0.09 | 71 | 1008.6 |
| 20260505160115 | 48 | 309 | 6.0 | 10.0 | 0.00 | 0.46 | 0.09 | 70 | 1008.6 |
| 20260505153308 | 45 | 276 | 2.0 | 5.0 | 0.01 | 0.46 | 0.09 | 85 | 1009.1 |
| 20260505153216 | 45 | 276 | 2.0 | 5.0 | 0.01 | 0.46 | 0.09 | 85 | 1009.2 |
| 20260505153118 | 45 | 289 | 2.0 | 4.0 | 0.01 | 0.46 | 0.09 | 85 | 1009.2 |
| 20260505153019 | 45 | 317 | 1.0 | 4.0 | 0.01 | 0.46 | 0.09 | 84 | 1009.2 |
| 20260505152914 | 45 | 317 | 1.0 | 4.0 | 0.01 | 0.46 | 0.09 | 83 | 1009.0 |
| 20260505152805 | 45 | 317 | 1.0 | 4.0 | 0.01 | 0.46 | 0.09 | 83 | 1009.0 |
| 20260505152717 | 45 | 317 | 2.0 | 4.0 | 0.01 | 0.46 | 0.09 | 83 | 1009.0 |
| 20260505152627 | 45 | 317 | 2.0 | 4.0 | 0.02 | 0.46 | 0.09 | 84 | 1009.1 |
| 20260505152538 | 45 | 317 | 1.0 | 5.0 | 0.02 | 0.46 | 0.09 | 85 | 1009.1 |
| 20260505152409 | 45 | 317 | 1.0 | 8.0 | 0.02 | 0.46 | 0.09 | 85 | 1009.1 |
| 20260505152319 | 44 | 317 | 1.0 | 8.0 | 0.02 | 0.46 | 0.09 | 84 | 1009.1 |
| 20260505152229 | 44 | 317 | 2.0 | 8.0 | 0.02 | 0.46 | 0.09 | 84 | 1009.2 |
| 20260505152101 | 44 | 317 | 3.0 | 8.0 | 0.02 | 0.46 | 0.09 | 84 | 1009.3 |
| 20260505152010 | 44 | 296 | 2.0 | 8.0 | 0.02 | 0.46 | 0.09 | 85 | 1009.3 |
| 20260505151904 | 44 | 326 | 2.0 | 8.0 | 0.02 | 0.46 | 0.09 | 85 | 1009.2 |
| 20260505151814 | 44 | 326 | 3.0 | 8.0 | 0.02 | 0.46 | 0.09 | 85 | 1009.1 |
| 20260505151724 | 44 | 326 | 4.0 | 8.0 | 0.02 | 0.46 | 0.09 | 85 | 1009.0 |
| 20260505151634 | 44 | 285 | 3.0 | 8.0 | 0.02 | 0.46 | 0.09 | 85 | 1009.0 |
| 20260505151535 | 44 | 311 | 2.0 | 6.0 | 0.02 | 0.46 | 0.09 | 85 | 1009.0 |
| 20260505151406 | 44 | 323 | 2.0 | 4.0 | 0.02 | 0.46 | 0.09 | 86 | 1008.8 |
| 20260505151317 | 44 | 323 | 1.0 | 4.0 | 0.02 | 0.46 | 0.09 | 86 | 1008.7 |
| 20260505151208 | 44 | 323 | 0.0 | 4.0 | 0.02 | 0.46 | 0.09 | 86 | 1008.8 |
| 20260505151100 | 44 | 323 | 1.0 | 4.0 | 0.02 | 0.46 | 0.09 | 86 | 1008.8 |
| 20260505151014 | 44 | 323 | 2.0 | 4.0 | 0.02 | 0.46 | 0.09 | 86 | 1008.9 |
| 20260505150904 | 44 | 323 | 3.0 | 4.0 | 0.02 | 0.46 | 0.09 | 86 | 1009.1 |
| 20260505150814 | 44 | 339 | 2.0 | 4.0 | 0.03 | 0.46 | 0.09 | 86 | 1009.0 |
| 20260505150705 | 44 | 321 | 1.0 | 4.0 | 0.03 | 0.46 | 0.09 | 87 | 1008.9 |
| 20260505150615 | 44 | 321 | 2.0 | 4.0 | 0.03 | 0.46 | 0.09 | 87 | 1009.0 |
| 20260505150526 | 44 | 321 | 1.0 | 4.0 | 0.03 | 0.46 | 0.09 | 87 | 1008.9 |
| 20260505150415 | 44 | 321 | 1.0 | 4.0 | 0.03 | 0.46 | 0.09 | 87 | 1009.0 |
| 20260505150328 | 44 | 321 | 2.0 | 4.0 | 0.03 | 0.46 | 0.09 | 87 | 1009.0 |
| 20260505150216 | 44 | 321 | 2.0 | 4.0 | 0.03 | 0.46 | 0.09 | 87 | 1009.1 |
| 20260505150107 | 44 | 321 | 2.0 | 4.0 | 0.03 | 0.46 | 0.09 | 87 | 1009.2 |
| 20260505140600 | 43 | 290 | 1.0 | 4.0 | 0.06 | 0.43 | 0.06 | 88 | 1009.8 |
| 20260505140512 | 43 | 290 | 0.0 | 4.0 | 0.06 | 0.43 | 0.06 | 88 | 1009.7 |
| 20260505140426 | 43 | 290 | 0.0 | 5.0 | 0.06 | 0.43 | 0.06 | 88 | 1009.6 |
| 20260505140317 | 43 | 290 | 0.0 | 5.0 | 0.06 | 0.43 | 0.06 | 88 | 1009.4 |
| 20260505140206 | 43 | 290 | 1.0 | 5.0 | 0.06 | 0.43 | 0.06 | 88 | 1009.5 |
| 20260505140116 | 43 | 290 | 1.0 | 5.0 | 0.06 | 0.43 | 0.06 | 88 | 1009.4 |
| 20260505130230 | 46 | 317 | 6.0 | 13.0 | 0.00 | 0.37 | 0.00 | 77 | 1008.5 |
| 20260505130139 | 46 | 348 | 5.0 | 13.0 | 0.00 | 0.37 | 0.00 | 77 | 1008.5 |
| 20260505125007 | 47 | 344 | 8.0 | 14.0 | 0.00 | 0.37 | 0.00 | 73 | 1008.3 |
| 20260505124922 | 47 | 336 | 8.0 | 14.0 | 0.00 | 0.37 | 0.00 | 74 | 1008.4 |
| 20260505124811 | 47 | 317 | 8.0 | 14.0 | 0.00 | 0.37 | 0.00 | 74 | 1008.3 |
| 20260505124702 | 47 | 342 | 7.0 | 14.0 | 0.00 | 0.37 | 0.00 | 75 | 1008.3 |
| 20260505124612 | 47 | 338 | 6.0 | 14.0 | 0.00 | 0.37 | 0.00 | 75 | 1008.3 |
| 20260505124534 | 48 | 317 | 7.0 | 14.0 | 0.00 | 0.37 | 0.00 | 75 | 1008.3 |
| 20260505124425 | 48 | 332 | 8.0 | 14.0 | 0.00 | 0.37 | 0.00 | 75 | 1008.2 |
| 20260505124315 | 48 | 355 | 9.0 | 14.0 | 0.00 | 0.37 | 0.00 | 75 | 1008.2 |
| 20260505124206 | 48 | 279 | 9.0 | 14.0 | 0.00 | 0.37 | 0.00 | 76 | 1008.2 |
| 20260505124115 | 48 | 319 | 6.0 | 11.0 | 0.00 | 0.37 | 0.00 | 76 | 1008.2 |
| 20260505124006 | 48 | 309 | 5.0 | 10.0 | 0.00 | 0.37 | 0.00 | 77 | 1008.0 |
| 20260505123922 | 48 | 350 | 5.0 | 10.0 | 0.00 | 0.37 | 0.00 | 77 | 1008.0 |
| 20260505123833 | 48 | 305 | 4.0 | 10.0 | 0.00 | 0.37 | 0.00 | 77 | 1007.9 |
| 20260505123703 | 48 | 338 | 5.0 | 10.0 | 0.00 | 0.37 | 0.00 | 77 | 1008.0 |
| 20260505123614 | 48 | 313 | 5.0 | 10.0 | 0.00 | 0.37 | 0.00 | 77 | 1007.9 |
| 20260505123505 | 48 | 294 | 4.0 | 10.0 | 0.00 | 0.37 | 0.00 | 78 | 1007.8 |
| 20260505123416 | 48 | 321 | 4.0 | 10.0 | 0.00 | 0.37 | 0.00 | 77 | 1007.8 |
| 20260505123309 | 48 | 313 | 5.0 | 10.0 | 0.00 | 0.37 | 0.00 | 77 | 1007.8 |
| 20260505123159 | 48 | 303 | 6.0 | 10.0 | 0.00 | 0.37 | 0.00 | 78 | 1007.7 |
| 20260505123109 | 48 | 302 | 6.0 | 10.0 | 0.00 | 0.37 | 0.00 | 78 | 1007.7 |
| 20260505123045 | 48 | 322 | 5.0 | 10.0 | 0.00 | 0.37 | 0.00 | 78 | 1007.7 |
| 20260505122913 | 48 | 355 | 4.0 | 10.0 | 0.00 | 0.37 | 0.00 | 78 | 1007.6 |
| 20260505122805 | 48 | 330 | 5.0 | 10.0 | 0.00 | 0.37 | 0.00 | 78 | 1007.5 |
| 20260505122715 | 48 | 317 | 6.0 | 10.0 | 0.00 | 0.37 | 0.00 | 78 | 1007.6 |
| 20260505122605 | 48 | 320 | 6.0 | 10.0 | 0.00 | 0.37 | 0.00 | 79 | 1007.4 |
| 20260505122516 | 48 | 310 | 4.0 | 9.0 | 0.00 | 0.37 | 0.00 | 79 | 1007.5 |
| 20260505122426 | 48 | 355 | 4.0 | 9.0 | 0.00 | 0.37 | 0.00 | 79 | 1007.5 |
| 20260505122338 | 48 | 321 | 5.0 | 9.0 | 0.00 | 0.37 | 0.00 | 79 | 1007.4 |
| 20260505122227 | 47 | 339 | 5.0 | 9.0 | 0.00 | 0.37 | 0.00 | 79 | 1007.4 |
| 20260505122117 | 47 | 333 | 5.0 | 9.0 | 0.00 | 0.37 | 0.00 | 79 | 1007.4 |
| 20260505122011 | 48 | 294 | 5.0 | 9.0 | 0.00 | 0.37 | 0.00 | 80 | 1007.4 |
| 20260505121901 | 47 | 319 | 4.0 | 9.0 | 0.00 | 0.37 | 0.00 | 80 | 1007.4 |
| 20260505121812 | 47 | 342 | 3.0 | 9.0 | 0.00 | 0.37 | 0.00 | 80 | 1007.4 |
| 20260505121702 | 47 | 315 | 3.0 | 11.0 | 0.00 | 0.37 | 0.00 | 80 | 1007.4 |
| 20260505121613 | 48 | 313 | 4.0 | 11.0 | 0.00 | 0.37 | 0.00 | 80 | 1007.4 |
| 20260505121535 | 48 | 307 | 4.0 | 11.0 | 0.00 | 0.37 | 0.00 | 81 | 1007.5 |
| 20260505121425 | 47 | 350 | 4.0 | 11.0 | 0.00 | 0.37 | 0.00 | 80 | 1007.6 |
| 20260505121336 | 47 | 315 | 4.0 | 11.0 | 0.00 | 0.37 | 0.00 | 81 | 1007.5 |
| 20260505121204 | 48 | 301 | 4.0 | 11.0 | 0.00 | 0.37 | 0.00 | 81 | 1007.5 |
| 20260505121059 | 48 | 310 | 4.0 | 11.0 | 0.00 | 0.37 | 0.00 | 81 | 1007.6 |
| 20260505121009 | 48 | 315 | 6.0 | 11.0 | 0.00 | 0.37 | 0.00 | 81 | 1007.5 |
| 20260505120900 | 47 | 331 | 5.0 | 11.0 | 0.00 | 0.37 | 0.00 | 81 | 1007.5 |
| 20260505120810 | 47 | 273 | 4.0 | 10.0 | 0.00 | 0.37 | 0.00 | 81 | 1007.7 |
| 20260505120722 | 47 | 335 | 6.0 | 10.0 | 0.00 | 0.37 | 0.00 | 81 | 1007.6 |
| 20260505120611 | 47 | 313 | 6.0 | 10.0 | 0.00 | 0.37 | 0.00 | 81 | 1007.5 |
| 20260505120502 | 47 | 313 | 6.0 | 10.0 | 0.00 | 0.37 | 0.00 | 81 | 1007.4 |
| 20260505120412 | 47 | 327 | 6.0 | 10.0 | 0.00 | 0.37 | 0.00 | 81 | 1007.3 |
| 20260505120305 | 47 | 348 | 6.0 | 10.0 | 0.00 | 0.37 | 0.00 | 81 | 1007.1 |
| 20260505120214 | 47 | 325 | 6.0 | 10.0 | 0.00 | 0.37 | 0.00 | 81 | 1007.1 |
| 20260505120110 | 47 | 300 | 5.0 | 10.0 | 0.00 | 0.37 | 0.00 | 82 | 1007.1 |
| 20260505120032 | 47 | 330 | 4.0 | 10.0 | 0.00 | 0.37 | 0.00 | 82 | 1007.0 |
| 20260505115902 | 47 | 315 | 4.0 | 10.0 | 0.00 | 0.37 | 0.00 | 82 | 1006.8 |
| 20260505115813 | 47 | 327 | 5.0 | 10.0 | 0.00 | 0.37 | 0.00 | 82 | 1006.9 |
| 20260505115704 | 47 | 9 | 4.0 | 10.0 | 0.00 | 0.37 | 0.00 | 82 | 1006.9 |
| 20260505115615 | 47 | 290 | 5.0 | 10.0 | 0.00 | 0.37 | 0.00 | 82 | 1007.0 |
| 20260505115504 | 47 | 331 | 7.0 | 12.0 | 0.00 | 0.37 | 0.00 | 82 | 1007.1 |
| 20260505115415 | 47 | 341 | 7.0 | 12.0 | 0.00 | 0.37 | 0.00 | 82 | 1007.1 |
| 20260505115325 | 47 | 309 | 4.0 | 12.0 | 0.00 | 0.37 | 0.00 | 82 | 1007.1 |
| 20260505115218 | 47 | 296 | 4.0 | 12.0 | 0.00 | 0.37 | 0.00 | 82 | 1007.1 |
| 20260505115107 | 47 | 317 | 5.0 | 12.0 | 0.00 | 0.37 | 0.00 | 81 | 1007.0 |
| 20260505115017 | 47 | 287 | 6.0 | 12.0 | 0.00 | 0.37 | 0.00 | 81 | 1007.0 |
| 20260505114927 | 47 | 317 | 8.0 | 12.0 | 0.00 | 0.37 | 0.00 | 81 | 1007.0 |
| 20260505114816 | 47 | 292 | 8.0 | 12.0 | 0.00 | 0.37 | 0.00 | 81 | 1006.9 |
| 20260505114727 | 47 | 340 | 7.0 | 11.0 | 0.00 | 0.37 | 0.00 | 81 | 1006.9 |
| 20260505114616 | 47 | 309 | 6.0 | 11.0 | 0.00 | 0.37 | 0.00 | 81 | 1006.9 |
| 20260505114537 | 47 | 294 | 6.0 | 11.0 | 0.00 | 0.37 | 0.00 | 81 | 1006.8 |
| 20260505114427 | 47 | 332 | 6.0 | 11.0 | 0.00 | 0.37 | 0.00 | 81 | 1006.8 |
| 20260505114338 | 47 | 338 | 7.0 | 11.0 | 0.00 | 0.37 | 0.00 | 80 | 1006.7 |
| 20260505114227 | 47 | 298 | 7.0 | 11.0 | 0.00 | 0.37 | 0.00 | 80 | 1006.5 |
| 20260505114100 | 47 | 300 | 5.0 | 11.0 | 0.00 | 0.37 | 0.00 | 81 | 1006.5 |
| 20260505114010 | 47 | 27 | 6.0 | 11.0 | 0.00 | 0.37 | 0.00 | 81 | 1006.6 |
| 20260505113902 | 47 | 320 | 6.0 | 11.0 | 0.00 | 0.37 | 0.00 | 81 | 1006.5 |
| 20260505113812 | 47 | 333 | 6.0 | 11.0 | 0.00 | 0.37 | 0.00 | 81 | 1006.5 |
| 20260505113703 | 47 | 316 | 6.0 | 10.0 | 0.00 | 0.37 | 0.00 | 81 | 1006.5 |
| 20260505113615 | 47 | 320 | 6.0 | 10.0 | 0.00 | 0.37 | 0.00 | 81 | 1006.4 |
| 20260505113506 | 47 | 304 | 5.0 | 10.0 | 0.00 | 0.37 | 0.00 | 81 | 1006.4 |
| 20260505113418 | 47 | 278 | 5.0 | 10.0 | 0.00 | 0.37 | 0.00 | 80 | 1006.4 |
| 20260505113310 | 47 | 301 | 5.0 | 10.0 | 0.00 | 0.37 | 0.00 | 80 | 1006.3 |
| 20260505113222 | 47 | 312 | 5.0 | 10.0 | 0.00 | 0.37 | 0.00 | 80 | 1006.2 |
| 20260505113112 | 47 | 302 | 6.0 | 10.0 | 0.00 | 0.37 | 0.00 | 80 | 1006.2 |
| 20260505113033 | 48 | 296 | 5.0 | 9.0 | 0.00 | 0.37 | 0.00 | 80 | 1006.2 |
| 20260505112904 | 48 | 287 | 5.0 | 10.0 | 0.00 | 0.37 | 0.00 | 80 | 1006.1 |
| 20260505112815 | 48 | 304 | 6.0 | 10.0 | 0.00 | 0.37 | 0.00 | 80 | 1006.1 |
| 20260505112706 | 48 | 292 | 6.0 | 10.0 | 0.00 | 0.37 | 0.00 | 79 | 1006.0 |
| 20260505112615 | 48 | 290 | 5.0 | 10.0 | 0.00 | 0.37 | 0.00 | 79 | 1005.9 |
| 20260505112507 | 48 | 298 | 4.0 | 10.0 | 0.00 | 0.37 | 0.00 | 79 | 1005.7 |
| 20260505112418 | 48 | 310 | 4.0 | 10.0 | 0.00 | 0.37 | 0.00 | 79 | 1005.8 |
| 20260505112329 | 48 | 295 | 5.0 | 10.0 | 0.00 | 0.37 | 0.00 | 79 | 1005.8 |
| 20260505112203 | 48 | 284 | 6.0 | 10.0 | 0.00 | 0.37 | 0.00 | 79 | 1005.7 |
| 20260505112113 | 48 | 321 | 6.0 | 10.0 | 0.00 | 0.37 | 0.00 | 79 | 1005.6 |
| 20260505112005 | 48 | 304 | 4.0 | 8.0 | 0.00 | 0.37 | 0.00 | 79 | 1005.5 |
| 20260505111917 | 48 | 323 | 3.0 | 8.0 | 0.00 | 0.37 | 0.00 | 79 | 1005.5 |
| 20260505111829 | 48 | 269 | 2.0 | 8.0 | 0.00 | 0.37 | 0.00 | 78 | 1005.4 |
| 20260505111739 | 48 | 319 | 3.0 | 8.0 | 0.00 | 0.37 | 0.00 | 78 | 1005.3 |
| 20260505111608 | 48 | 320 | 4.0 | 8.0 | 0.00 | 0.37 | 0.00 | 78 | 1005.3 |
| 20260505111529 | 48 | 300 | 3.0 | 8.0 | 0.00 | 0.37 | 0.00 | 78 | 1005.4 |
| 20260505111400 | 48 | 334 | 3.0 | 8.0 | 0.00 | 0.37 | 0.00 | 78 | 1005.3 |
| 20260505111314 | 48 | 288 | 4.0 | 8.0 | 0.00 | 0.37 | 0.00 | 78 | 1005.2 |
| 20260505111203 | 48 | 325 | 5.0 | 8.0 | 0.00 | 0.37 | 0.00 | 78 | 1005.3 |
| 20260505111114 | 48 | 306 | 4.0 | 8.0 | 0.00 | 0.37 | 0.00 | 78 | 1005.4 |
| 20260505111026 | 48 | 328 | 4.0 | 8.0 | 0.00 | 0.37 | 0.00 | 78 | 1005.4 |
| 20260505110917 | 48 | 321 | 3.0 | 8.0 | 0.00 | 0.37 | 0.00 | 78 | 1005.4 |
| 20260505110808 | 48 | 313 | 3.0 | 8.0 | 0.00 | 0.37 | 0.00 | 78 | 1005.6 |
| 20260505110719 | 48 | 304 | 3.0 | 8.0 | 0.00 | 0.37 | 0.00 | 78 | 1005.5 |
| 20260505110630 | 48 | 311 | 3.0 | 8.0 | 0.00 | 0.37 | 0.00 | 78 | 1005.7 |
| 20260505110500 | 48 | 310 | 3.0 | 8.0 | 0.00 | 0.37 | 0.00 | 77 | 1005.6 |
| 20260505110409 | 48 | 326 | 4.0 | 8.0 | 0.00 | 0.37 | 0.00 | 77 | 1005.7 |
| 20260505110306 | 48 | 315 | 5.0 | 8.0 | 0.00 | 0.37 | 0.00 | 77 | 1005.7 |
| 20260505110215 | 48 | 306 | 5.0 | 8.0 | 0.00 | 0.37 | 0.00 | 77 | 1005.7 |
| 20260505110106 | 48 | 317 | 4.0 | 8.0 | 0.00 | 0.37 | 0.00 | 77 | 1005.8 |
| 20260505102215 | 50 | 284 | 4.0 | 10.0 | 0.00 | 0.37 | 0.00 | 71 | 1006.0 |
| 20260505102127 | 50 | 308 | 5.0 | 11.0 | 0.00 | 0.37 | 0.00 | 71 | 1006.0 |
| 20260505102037 | 50 | 309 | 4.0 | 11.0 | 0.00 | 0.37 | 0.00 | 71 | 1006.1 |
| 20260505101927 | 50 | 302 | 3.0 | 11.0 | 0.00 | 0.37 | 0.00 | 71 | 1006.1 |
| 20260505101816 | 50 | 294 | 4.0 | 11.0 | 0.00 | 0.37 | 0.00 | 71 | 1006.1 |
| 20260505101707 | 50 | 263 | 5.0 | 11.0 | 0.00 | 0.37 | 0.00 | 70 | 1006.1 |
| 20260505101617 | 50 | 291 | 6.0 | 11.0 | 0.00 | 0.37 | 0.00 | 70 | 1006.1 |
| 20260505101538 | 50 | 265 | 7.0 | 11.0 | 0.00 | 0.37 | 0.00 | 70 | 1006.1 |
| 20260505101432 | 50 | 277 | 7.0 | 11.0 | 0.00 | 0.37 | 0.00 | 69 | 1006.1 |
| 20260505101301 | 50 | 302 | 7.0 | 11.0 | 0.00 | 0.37 | 0.00 | 69 | 1006.1 |
| 20260505101212 | 50 | 318 | 6.0 | 11.0 | 0.00 | 0.37 | 0.00 | 69 | 1006.0 |
| 20260505101122 | 50 | 297 | 7.0 | 11.0 | 0.00 | 0.37 | 0.00 | 69 | 1005.8 |
| 20260505101032 | 50 | 306 | 8.0 | 11.0 | 0.00 | 0.37 | 0.00 | 69 | 1005.8 |
| 20260505100900 | 51 | 277 | 8.0 | 11.0 | 0.00 | 0.37 | 0.00 | 69 | 1005.9 |
| 20260505100811 | 51 | 302 | 6.0 | 10.0 | 0.00 | 0.37 | 0.00 | 68 | 1005.9 |
| 20260505100702 | 51 | 290 | 5.0 | 10.0 | 0.00 | 0.37 | 0.00 | 68 | 1005.6 |
| 20260505100613 | 51 | 292 | 5.0 | 10.0 | 0.00 | 0.37 | 0.00 | 68 | 1005.4 |
| 20260505100508 | 51 | 306 | 6.0 | 10.0 | 0.00 | 0.37 | 0.00 | 68 | 1005.2 |
| 20260505100400 | 51 | 286 | 5.0 | 10.0 | 0.00 | 0.37 | 0.00 | 68 | 1005.3 |
| 20260505100311 | 51 | 280 | 4.0 | 9.0 | 0.00 | 0.37 | 0.00 | 68 | 1005.2 |
| 20260505100200 | 51 | 330 | 5.0 | 12.0 | 0.00 | 0.37 | 0.00 | 67 | 1005.3 |
| 20260505100109 | 51 | 306 | 6.0 | 12.0 | 0.00 | 0.37 | 0.00 | 67 | 1005.4 |
| 20260505100031 | 51 | 306 | 6.0 | 12.0 | 0.00 | 0.37 | 0.00 | 67 | 1005.4 |
| 20260505095901 | 51 | 297 | 3.0 | 12.0 | 0.00 | 0.37 | 0.00 | 67 | 1005.3 |
| 20260505095812 | 51 | 315 | 3.0 | 12.0 | 0.00 | 0.37 | 0.00 | 66 | 1005.2 |
| 20260505095704 | 51 | 351 | 3.0 | 12.0 | 0.00 | 0.37 | 0.00 | 66 | 1005.1 |
| 20260505095559 | 51 | 295 | 4.0 | 12.0 | 0.00 | 0.37 | 0.00 | 66 | 1005.2 |
| 20260505095509 | 51 | 347 | 6.0 | 12.0 | 0.00 | 0.37 | 0.00 | 66 | 1005.0 |
| 20260505095400 | 51 | 337 | 7.0 | 14.0 | 0.00 | 0.37 | 0.00 | 66 | 1005.2 |
| 20260505095310 | 51 | 289 | 6.0 | 14.0 | 0.00 | 0.37 | 0.00 | 66 | 1005.5 |
| 20260505095221 | 51 | 294 | 8.0 | 14.0 | 0.00 | 0.37 | 0.00 | 65 | 1005.6 |
| 20260505095111 | 52 | 275 | 7.0 | 14.0 | 0.00 | 0.37 | 0.00 | 66 | 1005.5 |
| 20260505095021 | 52 | 313 | 7.0 | 14.0 | 0.00 | 0.37 | 0.00 | 66 | 1005.6 |
| 20260505094911 | 52 | 338 | 7.0 | 14.0 | 0.00 | 0.37 | 0.00 | 66 | 1005.5 |
| 20260505094821 | 52 | 315 | 7.0 | 14.0 | 0.00 | 0.37 | 0.00 | 65 | 1005.5 |
| 20260505094732 | 52 | 323 | 8.0 | 14.0 | 0.00 | 0.37 | 0.00 | 65 | 1005.5 |
| 20260505094607 | 52 | 355 | 7.0 | 14.0 | 0.00 | 0.37 | 0.00 | 65 | 1005.5 |
| 20260505094528 | 52 | 294 | 5.0 | 13.0 | 0.00 | 0.37 | 0.00 | 66 | 1005.5 |
| 20260505094359 | 52 | 293 | 4.0 | 10.0 | 0.00 | 0.37 | 0.00 | 66 | 1005.3 |
| 20260505094308 | 52 | 295 | 4.0 | 10.0 | 0.00 | 0.37 | 0.00 | 66 | 1005.2 |
| 20260505094200 | 52 | 300 | 4.0 | 10.0 | 0.00 | 0.37 | 0.00 | 66 | 1005.1 |
| 20260505094111 | 52 | 314 | 4.0 | 10.0 | 0.00 | 0.37 | 0.00 | 66 | 1005.0 |
| 20260505094002 | 52 | 307 | 5.0 | 10.0 | 0.00 | 0.37 | 0.00 | 66 | 1005.1 |
| 20260505093911 | 52 | 294 | 6.0 | 10.0 | 0.00 | 0.37 | 0.00 | 66 | 1005.1 |
| 20260505093803 | 52 | 311 | 6.0 | 10.0 | 0.00 | 0.37 | 0.00 | 65 | 1005.0 |
| 20260505093717 | 52 | 297 | 5.0 | 10.0 | 0.00 | 0.37 | 0.00 | 65 | 1004.9 |
| 20260505093608 | 52 | 304 | 3.0 | 8.0 | 0.00 | 0.37 | 0.00 | 66 | 1004.9 |
| 20260505093459 | 52 | 300 | 4.0 | 8.0 | 0.00 | 0.37 | 0.00 | 65 | 1004.9 |
| 20260505093409 | 52 | 324 | 4.0 | 8.0 | 0.00 | 0.37 | 0.00 | 65 | 1004.8 |
| 20260505093302 | 52 | 309 | 4.0 | 9.0 | 0.00 | 0.37 | 0.00 | 65 | 1004.8 |
| 20260505093211 | 52 | 311 | 4.0 | 9.0 | 0.00 | 0.37 | 0.00 | 65 | 1004.9 |
| 20260505093101 | 53 | 293 | 4.0 | 9.0 | 0.00 | 0.37 | 0.00 | 66 | 1004.9 |
| 20260505093022 | 53 | 331 | 4.0 | 10.0 | 0.00 | 0.37 | 0.00 | 66 | 1005.1 |
| 20260505092913 | 53 | 291 | 4.0 | 10.0 | 0.00 | 0.37 | 0.00 | 66 | 1005.1 |
| 20260505092809 | 53 | 313 | 5.0 | 10.0 | 0.00 | 0.37 | 0.00 | 65 | 1005.1 |
| 20260505092718 | 53 | 302 | 5.0 | 10.0 | 0.00 | 0.37 | 0.00 | 65 | 1005.2 |
| 20260505092609 | 53 | 299 | 6.0 | 10.0 | 0.00 | 0.37 | 0.00 | 65 | 1005.0 |
| 20260505092459 | 53 | 313 | 6.0 | 10.0 | 0.00 | 0.37 | 0.00 | 64 | 1005.0 |
| 20260505092410 | 53 | 319 | 6.0 | 10.0 | 0.00 | 0.37 | 0.00 | 66 | 1005.0 |
| 20260505092321 | 53 | 304 | 6.0 | 10.0 | 0.00 | 0.37 | 0.00 | 65 | 1005.0 |
| 20260505092210 | 53 | 319 | 6.0 | 10.0 | 0.00 | 0.37 | 0.00 | 66 | 1005.0 |
| 20260505092100 | 53 | 296 | 6.0 | 8.0 | 0.00 | 0.37 | 0.00 | 66 | 1005.0 |
| 20260505092011 | 53 | 286 | 4.0 | 8.0 | 0.00 | 0.37 | 0.00 | 66 | 1004.9 |
| 20260505091906 | 53 | 290 | 3.0 | 8.0 | 0.00 | 0.37 | 0.00 | 66 | 1004.8 |
| 20260505091817 | 53 | 279 | 3.0 | 8.0 | 0.00 | 0.37 | 0.00 | 66 | 1004.7 |
| 20260505091707 | 53 | 297 | 3.0 | 8.0 | 0.00 | 0.37 | 0.00 | 66 | 1004.6 |
| 20260505091617 | 53 | 319 | 3.0 | 8.0 | 0.00 | 0.37 | 0.00 | 65 | 1004.5 |
| 20260505091538 | 53 | 302 | 4.0 | 8.0 | 0.00 | 0.37 | 0.00 | 65 | 1004.4 |
| 20260505091407 | 53 | 317 | 4.0 | 8.0 | 0.00 | 0.37 | 0.00 | 65 | 1004.2 |
| 20260505091318 | 53 | 316 | 4.0 | 6.0 | 0.00 | 0.37 | 0.00 | 66 | 1004.2 |
| 20260505091209 | 53 | 325 | 4.0 | 6.0 | 0.00 | 0.37 | 0.00 | 65 | 1004.1 |
| 20260505091104 | 53 | 296 | 4.0 | 7.0 | 0.00 | 0.37 | 0.00 | 65 | 1004.1 |
| 20260505091015 | 53 | 337 | 4.0 | 7.0 | 0.00 | 0.37 | 0.00 | 65 | 1004.2 |
| 20260505090905 | 53 | 298 | 4.0 | 7.0 | 0.00 | 0.37 | 0.00 | 65 | 1004.2 |
| 20260505090815 | 53 | 315 | 4.0 | 7.0 | 0.00 | 0.37 | 0.00 | 65 | 1004.2 |
| 20260505090706 | 54 | 312 | 3.0 | 6.0 | 0.00 | 0.37 | 0.00 | 65 | 1004.2 |
| 20260505090616 | 54 | 314 | 4.0 | 6.0 | 0.00 | 0.37 | 0.00 | 64 | 1004.2 |
| 20260505090527 | 54 | 305 | 4.0 | 9.0 | 0.00 | 0.37 | 0.00 | 64 | 1004.1 |
| 20260505090418 | 54 | 315 | 3.0 | 9.0 | 0.00 | 0.37 | 0.00 | 64 | 1004.1 |
| 20260505090310 | 54 | 313 | 4.0 | 9.0 | 0.00 | 0.37 | 0.00 | 64 | 1004.0 |
| 20260505090202 | 54 | 343 | 3.0 | 9.0 | 0.00 | 0.37 | 0.00 | 64 | 1003.9 |
| 20260505090113 | 54 | 355 | 2.0 | 9.0 | 0.00 | 0.37 | 0.00 | 65 | 1003.9 |
| 20260505090035 | 54 | 342 | 3.0 | 9.0 | 0.00 | 0.37 | 0.00 | 65 | 1004.0 |
| 20260505085904 | 54 | 329 | 5.0 | 9.0 | 0.00 | 0.37 | 0.00 | 64 | 1004.1 |
| 20260505085814 | 54 | 317 | 5.0 | 9.0 | 0.00 | 0.37 | 0.00 | 64 | 1004.3 |
| 20260505085725 | 54 | 312 | 4.0 | 8.0 | 0.00 | 0.37 | 0.00 | 65 | 1004.4 |
| 20260505085634 | 54 | 319 | 4.0 | 8.0 | 0.00 | 0.37 | 0.00 | 65 | 1004.4 |
| 20260505085524 | 54 | 310 | 3.0 | 8.0 | 0.00 | 0.37 | 0.00 | 65 | 1004.4 |
| 20260505085434 | 54 | 319 | 4.0 | 8.0 | 0.00 | 0.37 | 0.00 | 65 | 1004.4 |
| 20260505085323 | 54 | 317 | 5.0 | 8.0 | 0.00 | 0.37 | 0.00 | 65 | 1004.5 |
| 20260505085212 | 54 | 318 | 4.0 | 7.0 | 0.00 | 0.37 | 0.00 | 65 | 1004.5 |
| 20260505085124 | 54 | 290 | 3.0 | 6.0 | 0.00 | 0.37 | 0.00 | 65 | 1004.6 |
| 20260505085037 | 54 | 309 | 3.0 | 6.0 | 0.00 | 0.37 | 0.00 | 66 | 1004.6 |
| 20260505084928 | 54 | 302 | 3.0 | 6.0 | 0.00 | 0.37 | 0.00 | 66 | 1004.5 |
| 20260505084837 | 54 | 355 | 4.0 | 7.0 | 0.00 | 0.37 | 0.00 | 65 | 1004.6 |
| 20260505084748 | 54 | 294 | 4.0 | 7.0 | 0.00 | 0.37 | 0.00 | 66 | 1004.6 |
| 20260505084658 | 54 | 289 | 3.0 | 6.0 | 0.00 | 0.37 | 0.00 | 67 | 1004.6 |
| 20260505084559 | 54 | 305 | 3.0 | 7.0 | 0.00 | 0.37 | 0.00 | 67 | 1004.7 |
| 20260505084409 | 54 | 304 | 3.0 | 7.0 | 0.00 | 0.37 | 0.00 | 67 | 1004.6 |
| 20260505084320 | 54 | 322 | 3.0 | 7.0 | 0.00 | 0.37 | 0.00 | 67 | 1004.6 |
| 20260505084210 | 54 | 301 | 2.0 | 7.0 | 0.00 | 0.37 | 0.00 | 66 | 1004.6 |
| 20260505084122 | 54 | 324 | 2.0 | 7.0 | 0.00 | 0.37 | 0.00 | 67 | 1004.6 |
| 20260505084033 | 54 | 327 | 3.0 | 7.0 | 0.00 | 0.37 | 0.00 | 66 | 1004.5 |
| 20260505083922 | 54 | 327 | 4.0 | 7.0 | 0.00 | 0.37 | 0.00 | 66 | 1004.6 |
| 20260505083837 | 54 | 294 | 4.0 | 7.0 | 0.00 | 0.37 | 0.00 | 66 | 1004.6 |
| 20260505083706 | 54 | 304 | 4.0 | 6.0 | 0.00 | 0.37 | 0.00 | 66 | 1004.5 |
| 20260505083616 | 54 | 321 | 5.0 | 6.0 | 0.00 | 0.37 | 0.00 | 67 | 1004.5 |
| 20260505083505 | 55 | 323 | 4.0 | 7.0 | 0.00 | 0.37 | 0.00 | 67 | 1004.3 |
| 20260505083415 | 55 | 295 | 3.0 | 6.0 | 0.00 | 0.37 | 0.00 | 68 | 1004.4 |
| 20260505083308 | 55 | 308 | 2.0 | 5.0 | 0.00 | 0.37 | 0.00 | 69 | 1004.3 |
| 20260505083216 | 55 | 295 | 2.0 | 5.0 | 0.00 | 0.37 | 0.00 | 69 | 1004.2 |
| 20260505083127 | 55 | 311 | 2.0 | 5.0 | 0.00 | 0.37 | 0.00 | 68 | 1004.1 |
| 20260505083027 | 55 | 313 | 2.0 | 5.0 | 0.00 | 0.37 | 0.00 | 68 | 1003.9 |
| 20260505082918 | 55 | 318 | 0.0 | 4.0 | 0.00 | 0.37 | 0.00 | 69 | 1003.9 |
| 20260505082814 | 55 | 318 | 1.0 | 6.0 | 0.00 | 0.37 | 0.00 | 69 | 1003.9 |
| 20260505082705 | 55 | 318 | 2.0 | 6.0 | 0.00 | 0.37 | 0.00 | 69 | 1003.8 |
| 20260505082615 | 55 | 340 | 2.0 | 9.0 | 0.00 | 0.37 | 0.00 | 69 | 1003.8 |
| 20260505082506 | 55 | 309 | 2.0 | 9.0 | 0.00 | 0.37 | 0.00 | 69 | 1003.9 |
| 20260505082417 | 55 | 336 | 3.0 | 9.0 | 0.00 | 0.37 | 0.00 | 69 | 1003.9 |
| 20260505082308 | 55 | 329 | 3.0 | 9.0 | 0.00 | 0.37 | 0.00 | 69 | 1003.9 |
| 20260505082218 | 55 | 309 | 2.0 | 9.0 | 0.00 | 0.37 | 0.00 | 69 | 1003.8 |
| 20260505082109 | 55 | 22 | 3.0 | 9.0 | 0.00 | 0.37 | 0.00 | 70 | 1003.7 |
| 20260505082004 | 55 | 319 | 4.0 | 9.0 | 0.00 | 0.37 | 0.00 | 69 | 1003.8 |
| 20260505081915 | 55 | 337 | 5.0 | 9.0 | 0.00 | 0.37 | 0.00 | 69 | 1003.8 |
| 20260505081827 | 55 | 312 | 6.0 | 9.0 | 0.00 | 0.37 | 0.00 | 69 | 1003.7 |
| 20260505081716 | 55 | 313 | 5.0 | 9.0 | 0.00 | 0.37 | 0.00 | 70 | 1003.6 |
| 20260505081618 | 54 | 289 | 4.0 | 9.0 | 0.00 | 0.37 | 0.00 | 71 | 1003.5 |
| 20260505081520 | 55 | 325 | 3.0 | 8.0 | 0.00 | 0.37 | 0.00 | 73 | 1003.4 |
| 20260505081409 | 54 | 294 | 3.0 | 8.0 | 0.00 | 0.37 | 0.00 | 74 | 1003.3 |
| 20260505081319 | 54 | 350 | 3.0 | 8.0 | 0.00 | 0.37 | 0.00 | 75 | 1003.3 |
| 20260505081231 | 54 | 346 | 3.0 | 8.0 | 0.00 | 0.37 | 0.00 | 75 | 1003.2 |
| 20260505081100 | 54 | 5 | 4.0 | 8.0 | 0.00 | 0.37 | 0.00 | 76 | 1003.1 |
| 20260505081011 | 54 | 336 | 4.0 | 8.0 | 0.00 | 0.37 | 0.00 | 76 | 1003.2 |
| 20260505080906 | 54 | 24 | 4.0 | 8.0 | 0.00 | 0.37 | 0.00 | 77 | 1003.2 |
| 20260505080817 | 54 | 355 | 4.0 | 8.0 | 0.00 | 0.37 | 0.00 | 79 | 1003.3 |
| 20260505080728 | 54 | 294 | 3.0 | 8.0 | 0.00 | 0.37 | 0.00 | 81 | 1003.3 |
| 20260505080617 | 54 | 318 | 3.0 | 8.0 | 0.00 | 0.37 | 0.00 | 82 | 1003.3 |
| 20260505080508 | 54 | 329 | 3.0 | 8.0 | 0.00 | 0.37 | 0.00 | 84 | 1003.3 |
| 20260505080417 | 55 | 292 | 2.0 | 4.0 | 0.00 | 0.37 | 0.00 | 85 | 1003.3 |
| 20260505080330 | 55 | 258 | 1.0 | 3.0 | 0.00 | 0.37 | 0.00 | 86 | 1003.4 |
| 20260505080217 | 55 | 258 | 1.0 | 3.0 | 0.00 | 0.37 | 0.00 | 86 | 1003.5 |
| 20260505080128 | 55 | 258 | 1.0 | 3.0 | 0.00 | 0.37 | 0.00 | 87 | 1003.5 |
| 20260505080029 | 55 | 258 | 1.0 | 3.0 | 0.00 | 0.37 | 0.00 | 87 | 1003.4 |
| 20260505075904 | 55 | 258 | 0.0 | 3.0 | 0.00 | 0.37 | 0.00 | 87 | 1003.5 |
| 20260505075814 | 55 | 258 | 0.0 | 3.0 | 0.00 | 0.37 | 0.00 | 87 | 1003.4 |
| 20260505075705 | 55 | 258 | 1.0 | 3.0 | 0.00 | 0.37 | 0.00 | 87 | 1003.4 |
| 20260505075617 | 55 | 258 | 1.0 | 3.0 | 0.00 | 0.37 | 0.00 | 87 | 1003.4 |
| 20260505075510 | 55 | 258 | 1.0 | 2.0 | 0.00 | 0.37 | 0.00 | 87 | 1003.4 |
| 20260505075359 | 55 | 258 | 0.0 | 0.0 | 0.00 | 0.37 | 0.00 | 87 | 1003.4 |
| 20260505075312 | 55 | 258 | 0.0 | 0.0 | 0.00 | 0.37 | 0.00 | 87 | 1003.4 |
| 20260505075202 | 55 | 258 | 0.0 | 0.0 | 0.00 | 0.37 | 0.00 | 87 | 1003.3 |
| 20260505075115 | 55 | 258 | 0.0 | 0.0 | 0.00 | 0.37 | 0.00 | 87 | 1003.3 |
| 20260505075009 | 55 | 258 | 0.0 | 1.0 | 0.00 | 0.37 | 0.00 | 87 | 1003.3 |
| 20260505074900 | 55 | 258 | 0.0 | 2.0 | 0.00 | 0.37 | 0.00 | 87 | 1003.4 |
| 20260505074811 | 55 | 258 | 0.0 | 2.0 | 0.00 | 0.37 | 0.00 | 87 | 1003.4 |
| 20260505074704 | 55 | 258 | 0.0 | 2.0 | 0.00 | 0.37 | 0.00 | 87 | 1003.4 |
| 20260505074614 | 55 | 258 | 0.0 | 2.0 | 0.00 | 0.37 | 0.00 | 87 | 1003.3 |
| 20260505074535 | 55 | 258 | 0.0 | 2.0 | 0.00 | 0.37 | 0.00 | 87 | 1003.4 |
| 20260505074425 | 55 | 258 | 0.0 | 2.0 | 0.00 | 0.37 | 0.00 | 87 | 1003.3 |
| 20260505074336 | 55 | 258 | 0.0 | 2.0 | 0.00 | 0.37 | 0.00 | 87 | 1003.3 |
| 20260505074226 | 55 | 258 | 0.0 | 4.0 | 0.00 | 0.37 | 0.00 | 87 | 1003.3 |
| 20260505074116 | 55 | 258 | 0.0 | 4.0 | 0.00 | 0.37 | 0.00 | 87 | 1003.2 |
| 20260505074026 | 55 | 258 | 0.0 | 4.0 | 0.00 | 0.37 | 0.00 | 87 | 1003.2 |
| 20260505073942 | 55 | 258 | 0.0 | 4.0 | 0.00 | 0.37 | 0.00 | 87 | 1003.1 |
| 20260505073831 | 55 | 258 | 1.0 | 4.0 | 0.00 | 0.37 | 0.00 | 87 | 1003.3 |
| 20260505073702 | 55 | 258 | 1.0 | 6.0 | 0.00 | 0.37 | 0.00 | 87 | 1003.1 |
| 20260505073612 | 55 | 258 | 1.0 | 6.0 | 0.00 | 0.37 | 0.00 | 87 | 1003.1 |
| 20260505073503 | 56 | 258 | 1.0 | 6.0 | 0.00 | 0.37 | 0.00 | 87 | 1003.0 |
| 20260505073415 | 56 | 258 | 1.0 | 6.0 | 0.00 | 0.37 | 0.00 | 87 | 1003.0 |
| 20260505073309 | 56 | 294 | 1.0 | 6.0 | 0.00 | 0.37 | 0.00 | 87 | 1003.0 |
| 20260505073218 | 56 | 294 | 2.0 | 6.0 | 0.00 | 0.37 | 0.00 | 87 | 1003.0 |
| 20260505073109 | 56 | 294 | 2.0 | 6.0 | 0.00 | 0.37 | 0.00 | 87 | 1003.0 |
| 20260505073034 | 56 | 293 | 2.0 | 6.0 | 0.00 | 0.37 | 0.00 | 87 | 1003.1 |
| 20260505072924 | 56 | 302 | 3.0 | 6.0 | 0.00 | 0.37 | 0.00 | 87 | 1003.1 |
| 20260505072816 | 56 | 302 | 3.0 | 6.0 | 0.00 | 0.37 | 0.00 | 87 | 1003.1 |
| 20260505072725 | 56 | 290 | 3.0 | 5.0 | 0.00 | 0.37 | 0.00 | 87 | 1003.0 |
| 20260505072638 | 56 | 283 | 3.0 | 5.0 | 0.00 | 0.37 | 0.00 | 87 | 1002.9 |
| 20260505072507 | 56 | 302 | 4.0 | 5.0 | 0.00 | 0.37 | 0.00 | 87 | 1002.9 |
| 20260505072419 | 56 | 279 | 3.0 | 5.0 | 0.00 | 0.37 | 0.00 | 87 | 1003.0 |
| 20260505072309 | 56 | 296 | 3.0 | 5.0 | 0.00 | 0.37 | 0.00 | 87 | 1003.0 |
| 20260505072201 | 56 | 312 | 3.0 | 5.0 | 0.00 | 0.37 | 0.00 | 87 | 1002.9 |
| 20260505072113 | 56 | 295 | 4.0 | 5.0 | 0.00 | 0.37 | 0.00 | 87 | 1002.9 |
| 20260505072007 | 56 | 288 | 4.0 | 5.0 | 0.00 | 0.37 | 0.00 | 87 | 1002.9 |
| 20260505071916 | 56 | 288 | 3.0 | 6.0 | 0.00 | 0.37 | 0.00 | 87 | 1002.9 |
| 20260505071807 | 56 | 316 | 3.0 | 5.0 | 0.00 | 0.37 | 0.00 | 87 | 1002.9 |
| 20260505071659 | 56 | 296 | 3.0 | 5.0 | 0.00 | 0.37 | 0.00 | 87 | 1003.0 |
| 20260505071609 | 56 | 297 | 3.0 | 5.0 | 0.00 | 0.37 | 0.00 | 87 | 1003.0 |
| 20260505071531 | 56 | 288 | 3.0 | 7.0 | 0.00 | 0.37 | 0.00 | 87 | 1003.1 |
| 20260505071400 | 56 | 313 | 3.0 | 8.0 | 0.00 | 0.37 | 0.00 | 87 | 1003.0 |
| 20260505071311 | 56 | 300 | 2.0 | 8.0 | 0.00 | 0.37 | 0.00 | 87 | 1002.9 |
| 20260505071204 | 56 | 280 | 2.0 | 8.0 | 0.00 | 0.37 | 0.00 | 87 | 1002.8 |
| 20260505071117 | 56 | 280 | 2.0 | 8.0 | 0.00 | 0.37 | 0.00 | 87 | 1002.8 |
| 20260505071008 | 56 | 286 | 3.0 | 8.0 | 0.00 | 0.37 | 0.00 | 87 | 1002.8 |
| 20260505070859 | 56 | 317 | 3.0 | 8.0 | 0.00 | 0.37 | 0.00 | 88 | 1002.8 |
| 20260505070810 | 56 | 313 | 4.0 | 8.0 | 0.00 | 0.37 | 0.00 | 88 | 1002.9 |
| 20260505070700 | 56 | 294 | 5.0 | 8.0 | 0.00 | 0.37 | 0.00 | 88 | 1003.0 |
| 20260505070611 | 56 | 282 | 4.0 | 8.0 | 0.00 | 0.37 | 0.00 | 88 | 1003.0 |
| 20260505070502 | 56 | 304 | 3.0 | 4.0 | 0.00 | 0.37 | 0.00 | 88 | 1003.0 |
| 20260505070413 | 56 | 304 | 2.0 | 4.0 | 0.00 | 0.37 | 0.00 | 88 | 1003.0 |
| 20260505070310 | 56 | 296 | 2.0 | 6.0 | 0.00 | 0.37 | 0.00 | 88 | 1003.0 |
| 20260505070218 | 56 | 265 | 2.0 | 6.0 | 0.00 | 0.37 | 0.00 | 88 | 1003.1 |
| 20260505070129 | 56 | 301 | 2.0 | 6.0 | 0.00 | 0.37 | 0.00 | 89 | 1003.1 |
| 20260505070029 | 56 | 331 | 2.0 | 6.0 | 0.00 | 0.37 | 0.00 | 89 | 1003.1 |
| 20260505065900 | 56 | 331 | 2.0 | 6.0 | 0.00 | 0.37 | 0.00 | 89 | 1003.1 |
| 20260505065810 | 56 | 331 | 3.0 | 8.0 | 0.00 | 0.37 | 0.00 | 89 | 1003.1 |
| 20260505065701 | 56 | 315 | 4.0 | 8.0 | 0.00 | 0.37 | 0.00 | 89 | 1003.1 |
| 20260505065612 | 56 | 317 | 4.0 | 8.0 | 0.00 | 0.37 | 0.00 | 89 | 1003.1 |
| 20260505065502 | 56 | 328 | 3.0 | 8.0 | 0.00 | 0.37 | 0.00 | 89 | 1003.2 |
| 20260505065417 | 56 | 300 | 3.0 | 8.0 | 0.00 | 0.37 | 0.00 | 89 | 1003.2 |
| 20260505065307 | 56 | 322 | 3.0 | 8.0 | 0.00 | 0.37 | 0.00 | 89 | 1003.2 |
| 20260505065218 | 56 | 325 | 3.0 | 8.0 | 0.00 | 0.37 | 0.00 | 89 | 1003.2 |
| 20260505065108 | 56 | 313 | 3.0 | 8.0 | 0.00 | 0.37 | 0.00 | 89 | 1003.1 |
| 20260505064959 | 56 | 309 | 3.0 | 8.0 | 0.00 | 0.37 | 0.00 | 89 | 1003.1 |
| 20260505064911 | 56 | 313 | 3.0 | 8.0 | 0.00 | 0.37 | 0.00 | 89 | 1003.1 |
| 20260505064801 | 56 | 318 | 4.0 | 8.0 | 0.00 | 0.37 | 0.00 | 89 | 1003.0 |
| 20260505064712 | 56 | 312 | 3.0 | 7.0 | 0.00 | 0.37 | 0.00 | 89 | 1003.0 |
| 20260505064622 | 56 | 310 | 3.0 | 4.0 | 0.00 | 0.37 | 0.00 | 89 | 1003.0 |
| 20260505064548 | 56 | 318 | 3.0 | 4.0 | 0.00 | 0.37 | 0.00 | 89 | 1003.0 |
| 20260505064438 | 56 | 238 | 2.0 | 3.0 | 0.00 | 0.37 | 0.00 | 89 | 1002.9 |
| 20260505064348 | 56 | 238 | 2.0 | 3.0 | 0.00 | 0.37 | 0.00 | 89 | 1002.8 |
| 20260505064239 | 57 | 238 | 1.0 | 3.0 | 0.00 | 0.37 | 0.00 | 89 | 1002.7 |
| 20260505064108 | 56 | 238 | 1.0 | 3.0 | 0.00 | 0.37 | 0.00 | 89 | 1002.7 |
| 20260505063959 | 57 | 238 | 0.0 | 3.0 | 0.00 | 0.37 | 0.00 | 89 | 1002.7 |
| 20260505063911 | 57 | 238 | 0.0 | 3.0 | 0.00 | 0.37 | 0.00 | 89 | 1002.5 |
| 20260505063801 | 57 | 238 | 0.0 | 3.0 | 0.00 | 0.37 | 0.00 | 89 | 1002.5 |
| 20260505063711 | 57 | 238 | 0.0 | 3.0 | 0.00 | 0.37 | 0.00 | 89 | 1002.4 |
| 20260505063622 | 57 | 238 | 0.0 | 3.0 | 0.00 | 0.37 | 0.00 | 89 | 1002.2 |
| 20260505063517 | 57 | 238 | 1.0 | 3.0 | 0.00 | 0.37 | 0.00 | 89 | 1002.2 |
| 20260505063408 | 57 | 238 | 0.0 | 3.0 | 0.00 | 0.37 | 0.00 | 89 | 1002.3 |
| 20260505063321 | 57 | 238 | 1.0 | 3.0 | 0.00 | 0.37 | 0.00 | 89 | 1002.2 |
| 20260505063230 | 57 | 238 | 2.0 | 3.0 | 0.00 | 0.37 | 0.00 | 89 | 1002.4 |
| 20260505063119 | 57 | 238 | 2.0 | 3.0 | 0.00 | 0.37 | 0.00 | 89 | 1002.4 |
| 20260505063040 | 57 | 238 | 1.0 | 3.0 | 0.00 | 0.37 | 0.00 | 89 | 1002.4 |
| 20260505062909 | 57 | 238 | 1.0 | 3.0 | 0.00 | 0.37 | 0.00 | 89 | 1002.4 |
| 20260505062820 | 57 | 238 | 2.0 | 3.0 | 0.00 | 0.37 | 0.00 | 89 | 1002.3 |
| 20260505062710 | 57 | 238 | 2.0 | 3.0 | 0.00 | 0.37 | 0.00 | 89 | 1002.5 |
| 20260505062622 | 57 | 238 | 1.0 | 2.0 | 0.00 | 0.37 | 0.00 | 89 | 1002.5 |
| 20260505062533 | 57 | 238 | 1.0 | 2.0 | 0.00 | 0.37 | 0.00 | 89 | 1002.4 |
| 20260505062423 | 57 | 238 | 0.0 | 1.0 | 0.00 | 0.37 | 0.00 | 89 | 1002.4 |
| 20260505062337 | 57 | 238 | 0.0 | 0.0 | 0.00 | 0.37 | 0.00 | 89 | 1002.3 |
| 20260505062208 | 57 | 238 | 0.0 | 0.0 | 0.00 | 0.37 | 0.00 | 89 | 1002.3 |
| 20260505062118 | 57 | 238 | 0.0 | 1.0 | 0.00 | 0.37 | 0.00 | 89 | 1002.3 |
| 20260505062009 | 57 | 238 | 0.0 | 2.0 | 0.00 | 0.37 | 0.00 | 89 | 1002.3 |
| 20260505061900 | 57 | 238 | 0.0 | 2.0 | 0.00 | 0.37 | 0.00 | 89 | 1002.3 |
| 20260505061812 | 57 | 238 | 0.0 | 2.0 | 0.00 | 0.37 | 0.00 | 89 | 1002.3 |
| 20260505061724 | 57 | 238 | 0.0 | 2.0 | 0.00 | 0.37 | 0.00 | 89 | 1002.2 |
| 20260505061635 | 57 | 238 | 0.0 | 2.0 | 0.00 | 0.37 | 0.00 | 89 | 1002.3 |
| 20260505061557 | 57 | 238 | 0.0 | 2.0 | 0.00 | 0.37 | 0.00 | 89 | 1002.3 |
| 20260505061410 | 57 | 238 | 0.0 | 2.0 | 0.00 | 0.37 | 0.00 | 88 | 1002.3 |
| 20260505061321 | 57 | 238 | 1.0 | 2.0 | 0.00 | 0.37 | 0.00 | 89 | 1002.3 |
| 20260505061232 | 57 | 238 | 1.0 | 2.0 | 0.00 | 0.37 | 0.00 | 89 | 1002.3 |
| 20260505061142 | 57 | 238 | 0.0 | 2.0 | 0.00 | 0.37 | 0.00 | 89 | 1002.3 |
| 20260505061032 | 57 | 238 | 0.0 | 1.0 | 0.00 | 0.37 | 0.00 | 88 | 1002.3 |
| 20260505060922 | 57 | 238 | 0.0 | 1.0 | 0.00 | 0.37 | 0.00 | 88 | 1002.3 |
| 20260505060832 | 57 | 238 | 0.0 | 1.0 | 0.00 | 0.37 | 0.00 | 89 | 1002.2 |
| 20260505060703 | 57 | 238 | 0.0 | 1.0 | 0.00 | 0.37 | 0.00 | 88 | 1002.2 |
| 20260505060615 | 57 | 238 | 0.0 | 1.0 | 0.00 | 0.37 | 0.00 | 88 | 1002.4 |
| 20260505060505 | 57 | 238 | 0.0 | 1.0 | 0.00 | 0.37 | 0.00 | 88 | 1002.4 |
| 20260505060401 | 57 | 238 | 0.0 | 1.0 | 0.00 | 0.37 | 0.00 | 88 | 1002.3 |
| 20260505060314 | 57 | 238 | 0.0 | 1.0 | 0.00 | 0.37 | 0.00 | 88 | 1002.5 |
| 20260505060204 | 58 | 238 | 0.0 | 1.0 | 0.00 | 0.37 | 0.00 | 88 | 1002.4 |
| 20260505060115 | 58 | 238 | 0.0 | 2.0 | 0.00 | 0.37 | 0.00 | 88 | 1002.4 |
| 20260505060037 | 58 | 238 | 0.0 | 2.0 | 0.00 | 0.37 | 0.00 | 88 | 1002.5 |
| 20260505055907 | 58 | 238 | 0.0 | 2.0 | 0.00 | 0.37 | 0.00 | 88 | 1002.4 |
| 20260505055816 | 58 | 238 | 0.0 | 2.0 | 0.00 | 0.37 | 0.00 | 88 | 1002.4 |
| 20260505055706 | 58 | 238 | 0.0 | 2.0 | 0.00 | 0.37 | 0.00 | 88 | 1002.4 |
| 20260505055616 | 58 | 238 | 0.0 | 2.0 | 0.00 | 0.37 | 0.00 | 88 | 1002.4 |
| 20260505055512 | 58 | 238 | 0.0 | 2.0 | 0.00 | 0.37 | 0.00 | 88 | 1002.3 |
| 20260505055402 | 58 | 238 | 0.0 | 2.0 | 0.00 | 0.37 | 0.00 | 88 | 1002.3 |
| 20260505055313 | 58 | 238 | 0.0 | 2.0 | 0.00 | 0.37 | 0.00 | 88 | 1002.4 |
| 20260505055204 | 58 | 238 | 0.0 | 2.0 | 0.00 | 0.37 | 0.00 | 88 | 1002.4 |
| 20260505055116 | 58 | 238 | 0.0 | 2.0 | 0.00 | 0.37 | 0.00 | 88 | 1002.2 |
| 20260505055027 | 58 | 238 | 0.0 | 2.0 | 0.00 | 0.37 | 0.00 | 87 | 1002.3 |
| 20260505054938 | 58 | 238 | 0.0 | 3.0 | 0.00 | 0.37 | 0.00 | 87 | 1002.3 |
| 20260505054828 | 58 | 238 | 1.0 | 3.0 | 0.00 | 0.37 | 0.00 | 87 | 1002.3 |
| 20260505054659 | 58 | 238 | 1.0 | 3.0 | 0.00 | 0.37 | 0.00 | 87 | 1002.2 |
| 20260505054610 | 58 | 238 | 1.0 | 3.0 | 0.00 | 0.37 | 0.00 | 87 | 1002.2 |
| 20260505054535 | 58 | 238 | 1.0 | 3.0 | 0.00 | 0.37 | 0.00 | 87 | 1002.1 |
| 20260505054404 | 58 | 238 | 1.0 | 4.0 | 0.00 | 0.37 | 0.00 | 87 | 1002.1 |
| 20260505054315 | 58 | 238 | 1.0 | 4.0 | 0.00 | 0.37 | 0.00 | 87 | 1002.1 |
| 20260505054205 | 58 | 238 | 1.0 | 4.0 | 0.00 | 0.37 | 0.00 | 87 | 1002.1 |
| 20260505054115 | 58 | 238 | 1.0 | 4.0 | 0.00 | 0.37 | 0.00 | 87 | 1002.1 |
| 20260505054007 | 58 | 238 | 0.0 | 4.0 | 0.00 | 0.37 | 0.00 | 87 | 1002.1 |
| 20260505053916 | 58 | 238 | 1.0 | 4.0 | 0.00 | 0.37 | 0.00 | 87 | 1002.2 |
| 20260505053808 | 58 | 238 | 2.0 | 4.0 | 0.00 | 0.37 | 0.00 | 87 | 1002.1 |
| 20260505053702 | 58 | 238 | 2.0 | 4.0 | 0.00 | 0.37 | 0.00 | 87 | 1002.3 |
| 20260505053612 | 58 | 238 | 2.0 | 4.0 | 0.00 | 0.37 | 0.00 | 87 | 1002.3 |
| 20260505053521 | 58 | 227 | 2.0 | 4.0 | 0.00 | 0.37 | 0.00 | 87 | 1002.2 |
| 20260505053432 | 58 | 248 | 2.0 | 5.0 | 0.00 | 0.37 | 0.00 | 87 | 1002.3 |
| 20260505053302 | 58 | 248 | 2.0 | 5.0 | 0.00 | 0.37 | 0.00 | 87 | 1002.2 |
| 20260505053211 | 58 | 248 | 2.0 | 5.0 | 0.00 | 0.37 | 0.00 | 87 | 1002.2 |
| 20260505053103 | 58 | 248 | 2.0 | 5.0 | 0.00 | 0.37 | 0.00 | 87 | 1002.1 |
| 20260505053024 | 58 | 248 | 2.0 | 5.0 | 0.00 | 0.37 | 0.00 | 87 | 1002.1 |
| 20260505052914 | 58 | 248 | 2.0 | 5.0 | 0.00 | 0.37 | 0.00 | 87 | 1002.1 |
| 20260505052805 | 58 | 224 | 2.0 | 5.0 | 0.00 | 0.37 | 0.00 | 87 | 1002.1 |
| 20260505052700 | 58 | 236 | 3.0 | 5.0 | 0.00 | 0.37 | 0.00 | 87 | 1002.1 |
| 20260505052611 | 58 | 236 | 3.0 | 5.0 | 0.00 | 0.37 | 0.00 | 87 | 1002.2 |
| 20260505052503 | 58 | 265 | 2.0 | 6.0 | 0.00 | 0.37 | 0.00 | 88 | 1002.2 |
| 20260505052413 | 58 | 241 | 2.0 | 6.0 | 0.00 | 0.37 | 0.00 | 88 | 1002.0 |
| 20260505052304 | 58 | 277 | 2.0 | 5.0 | 0.00 | 0.37 | 0.00 | 88 | 1002.1 |
| 20260505052213 | 58 | 226 | 2.0 | 5.0 | 0.00 | 0.37 | 0.00 | 88 | 1002.0 |
| 20260505052104 | 58 | 232 | 2.0 | 5.0 | 0.00 | 0.37 | 0.00 | 88 | 1002.0 |
| 20260505052014 | 58 | 232 | 2.0 | 5.0 | 0.00 | 0.37 | 0.00 | 88 | 1002.1 |
| 20260505051908 | 58 | 253 | 2.0 | 4.0 | 0.00 | 0.37 | 0.00 | 88 | 1002.0 |
| 20260505051759 | 58 | 281 | 2.0 | 4.0 | 0.00 | 0.37 | 0.00 | 88 | 1001.9 |
| 20260505051710 | 58 | 234 | 1.0 | 4.0 | 0.00 | 0.37 | 0.00 | 87 | 1001.9 |
| 20260505051621 | 58 | 235 | 2.0 | 4.0 | 0.00 | 0.37 | 0.00 | 87 | 1001.9 |
| 20260505051543 | 58 | 235 | 1.0 | 4.0 | 0.00 | 0.37 | 0.00 | 87 | 1001.9 |
| 20260505051432 | 58 | 235 | 2.0 | 5.0 | 0.00 | 0.37 | 0.00 | 87 | 1001.8 |
| 20260505051303 | 58 | 235 | 2.0 | 5.0 | 0.00 | 0.37 | 0.00 | 87 | 1001.8 |
| 20260505051214 | 58 | 235 | 2.0 | 5.0 | 0.00 | 0.37 | 0.00 | 87 | 1001.7 |
| 20260505051125 | 58 | 235 | 2.0 | 5.0 | 0.00 | 0.37 | 0.00 | 87 | 1001.7 |
| 20260505051013 | 58 | 235 | 2.0 | 5.0 | 0.00 | 0.37 | 0.00 | 87 | 1001.7 |
| 20260505050908 | 58 | 235 | 3.0 | 5.0 | 0.00 | 0.37 | 0.00 | 87 | 1001.8 |
| 20260505050818 | 58 | 235 | 3.0 | 5.0 | 0.00 | 0.37 | 0.00 | 87 | 1001.7 |
| 20260505050729 | 58 | 230 | 3.0 | 5.0 | 0.00 | 0.37 | 0.00 | 87 | 1001.7 |
| 20260505050638 | 58 | 229 | 2.0 | 5.0 | 0.00 | 0.37 | 0.00 | 87 | 1001.6 |
| 20260505050550 | 58 | 248 | 2.0 | 5.0 | 0.00 | 0.37 | 0.00 | 87 | 1001.6 |
| 20260505050439 | 58 | 219 | 2.0 | 5.0 | 0.00 | 0.37 | 0.00 | 87 | 1001.6 |
| 20260505050310 | 58 | 241 | 2.0 | 5.0 | 0.00 | 0.37 | 0.00 | 87 | 1001.6 |
| 20260505050159 | 58 | 225 | 1.0 | 5.0 | 0.00 | 0.37 | 0.00 | 87 | 1001.6 |
| 20260505050111 | 58 | 226 | 1.0 | 5.0 | 0.00 | 0.37 | 0.00 | 87 | 1001.6 |
| 20260505041700 | 59 | 235 | 5.0 | 7.0 | 0.01 | 0.37 | 0.00 | 85 | 1000.9 |
| 20260505041611 | 59 | 232 | 5.0 | 7.0 | 0.01 | 0.37 | 0.00 | 85 | 1001.0 |
| 20260505041534 | 59 | 231 | 5.0 | 7.0 | 0.01 | 0.37 | 0.00 | 85 | 1000.9 |
| 20260505041404 | 59 | 246 | 5.0 | 8.0 | 0.01 | 0.37 | 0.00 | 85 | 1000.9 |
| 20260505041314 | 59 | 217 | 5.0 | 8.0 | 0.01 | 0.37 | 0.00 | 85 | 1000.7 |
| 20260505041225 | 59 | 238 | 5.0 | 8.0 | 0.01 | 0.37 | 0.00 | 85 | 1000.9 |
| 20260505041135 | 59 | 234 | 4.0 | 7.0 | 0.01 | 0.37 | 0.00 | 85 | 1000.6 |
| 20260505041008 | 60 | 250 | 3.0 | 6.0 | 0.01 | 0.37 | 0.00 | 85 | 1000.4 |
| 20260505040859 | 60 | 261 | 3.0 | 7.0 | 0.01 | 0.37 | 0.00 | 85 | 1000.3 |
| 20260505040810 | 60 | 126 | 3.0 | 7.0 | 0.01 | 0.37 | 0.00 | 85 | 1000.3 |
| 20260505040702 | 60 | 246 | 2.0 | 7.0 | 0.01 | 0.37 | 0.00 | 85 | 1000.2 |
| 20260505040612 | 60 | 223 | 2.0 | 7.0 | 0.01 | 0.37 | 0.00 | 85 | 1000.2 |
| 20260505040502 | 60 | 240 | 2.0 | 7.0 | 0.01 | 0.37 | 0.00 | 84 | 1000.1 |
| 20260505040412 | 60 | 245 | 2.0 | 8.0 | 0.01 | 0.37 | 0.00 | 84 | 1000.1 |
| 20260505040325 | 60 | 175 | 2.0 | 8.0 | 0.01 | 0.37 | 0.00 | 84 | 1000.0 |
| 20260505040212 | 60 | 244 | 3.0 | 8.0 | 0.01 | 0.37 | 0.37 | 84 | 1000.1 |
| 20260505040124 | 60 | 227 | 4.0 | 8.0 | 0.01 | 0.37 | 0.37 | 84 | 1000.1 |
| 20260505040049 | 60 | 279 | 4.0 | 8.0 | 0.01 | 0.37 | 0.37 | 84 | 1000.0 |
| 20260505035919 | 60 | 190 | 3.0 | 10.0 | 0.01 | 0.37 | 0.37 | 84 | 1000.1 |
| 20260505035821 | 60 | 128 | 3.0 | 10.0 | 0.01 | 0.37 | 0.37 | 84 | 1000.1 |
| 20260505035712 | 60 | 244 | 4.0 | 10.0 | 0.01 | 0.37 | 0.37 | 84 | 1000.1 |
| 20260505035602 | 60 | 223 | 4.0 | 10.0 | 0.01 | 0.37 | 0.37 | 84 | 1000.0 |
| 20260505035513 | 60 | 235 | 5.0 | 10.0 | 0.01 | 0.37 | 0.37 | 84 | 1000.0 |
| 20260505035405 | 60 | 207 | 5.0 | 10.0 | 0.01 | 0.37 | 0.37 | 84 | 1000.0 |
| 20260505035316 | 60 | 219 | 5.0 | 10.0 | 0.01 | 0.37 | 0.37 | 84 | 1000.1 |
| 20260505035207 | 60 | 344 | 4.0 | 10.0 | 0.01 | 0.37 | 0.37 | 84 | 1000.1 |
| 20260505035120 | 60 | 223 | 3.0 | 10.0 | 0.01 | 0.37 | 0.37 | 84 | 1000.0 |
| 20260505035034 | 60 | 19 | 3.0 | 10.0 | 0.01 | 0.37 | 0.37 | 84 | 1000.1 |
| 20260505034904 | 60 | 256 | 3.0 | 11.0 | 0.01 | 0.37 | 0.37 | 84 | 1000.0 |
| 20260505034814 | 60 | 242 | 3.0 | 11.0 | 0.01 | 0.37 | 0.37 | 84 | 1000.1 |
| 20260505034724 | 60 | 327 | 3.0 | 11.0 | 0.01 | 0.37 | 0.37 | 84 | 1000.1 |
| 20260505034635 | 60 | 212 | 4.0 | 11.0 | 0.01 | 0.37 | 0.37 | 84 | 1000.2 |
| 20260505034557 | 60 | 104 | 5.0 | 13.0 | 0.01 | 0.37 | 0.37 | 84 | 1000.3 |
| 20260505034426 | 60 | 202 | 6.0 | 13.0 | 0.01 | 0.37 | 0.37 | 84 | 1000.2 |
| 20260505034338 | 60 | 235 | 8.0 | 13.0 | 0.01 | 0.37 | 0.37 | 84 | 1000.2 |
| 20260505034207 | 60 | 240 | 8.0 | 13.0 | 0.01 | 0.37 | 0.37 | 84 | 1000.1 |
| 20260505034059 | 60 | 253 | 7.0 | 13.0 | 0.01 | 0.37 | 0.37 | 84 | 1000.0 |
| 20260505034013 | 60 | 193 | 7.0 | 18.0 | 0.01 | 0.37 | 0.37 | 84 | 1000.0 |
| 20260505033905 | 60 | 201 | 6.0 | 18.0 | 0.01 | 0.37 | 0.37 | 84 | 1000.1 |
| 20260505033814 | 60 | 71 | 5.0 | 18.0 | 0.01 | 0.37 | 0.37 | 84 | 1000.2 |
| 20260505033724 | 60 | 242 | 5.0 | 18.0 | 0.01 | 0.37 | 0.37 | 84 | 1000.0 |
| 20260505033635 | 60 | 267 | 5.0 | 18.0 | 0.00 | 0.36 | 0.36 | 84 | 999.9 |
| 20260505033505 | 60 | 281 | 6.0 | 18.0 | 0.00 | 0.36 | 0.36 | 84 | 1000.0 |
| 20260505033415 | 60 | 128 | 7.0 | 18.0 | 0.00 | 0.36 | 0.36 | 84 | 1000.4 |
| 20260505033307 | 61 | 220 | 8.0 | 18.0 | 0.00 | 0.36 | 0.36 | 84 | 1000.2 |
| 20260505033217 | 61 | 131 | 8.0 | 18.0 | 0.00 | 0.36 | 0.36 | 84 | 1000.4 |
| 20260505033111 | 61 | 236 | 8.0 | 17.0 | 0.00 | 0.36 | 0.36 | 84 | 1000.4 |
| 20260505033034 | 61 | 143 | 8.0 | 17.0 | 0.00 | 0.36 | 0.36 | 84 | 1000.3 |
| 20260505032905 | 61 | 116 | 6.0 | 13.0 | 0.00 | 0.36 | 0.36 | 84 | 1000.3 |
| 20260505032816 | 61 | 137 | 7.0 | 13.0 | 0.00 | 0.36 | 0.36 | 84 | 1000.3 |
| 20260505032707 | 61 | 232 | 7.0 | 13.0 | 0.00 | 0.36 | 0.36 | 84 | 1000.4 |
| 20260505032617 | 61 | 124 | 6.0 | 11.0 | 0.00 | 0.36 | 0.36 | 84 | 1000.5 |
| 20260505032508 | 61 | 252 | 6.0 | 11.0 | 0.00 | 0.36 | 0.36 | 84 | 1000.4 |
| 20260505032359 | 61 | 210 | 6.0 | 11.0 | 0.00 | 0.36 | 0.36 | 84 | 1000.4 |
| 20260505032311 | 61 | 277 | 5.0 | 11.0 | 0.00 | 0.36 | 0.36 | 84 | 1000.2 |
| 20260505032206 | 61 | 271 | 4.0 | 11.0 | 0.00 | 0.36 | 0.36 | 84 | 1000.2 |
| 20260505032118 | 61 | 5 | 3.0 | 11.0 | 0.00 | 0.36 | 0.36 | 84 | 1000.4 |
| 20260505032029 | 61 | 277 | 4.0 | 11.0 | 0.00 | 0.36 | 0.36 | 84 | 1000.5 |
| 20260505031859 | 61 | 360 | 6.0 | 11.0 | 0.00 | 0.36 | 0.36 | 84 | 1000.8 |
| 20260505031810 | 61 | 289 | 6.0 | 11.0 | 0.00 | 0.36 | 0.36 | 84 | 1000.8 |
| 20260505031702 | 61 | 239 | 6.0 | 11.0 | 0.00 | 0.36 | 0.36 | 84 | 1000.9 |
| 20260505031614 | 61 | 244 | 5.0 | 11.0 | 0.00 | 0.36 | 0.36 | 84 | 1001.0 |
| 20260505031537 | 61 | 209 | 5.0 | 11.0 | 0.00 | 0.36 | 0.36 | 84 | 1001.1 |
| 20260505031406 | 61 | 215 | 6.0 | 11.0 | 0.00 | 0.36 | 0.36 | 84 | 1001.2 |
| 20260505031301 | 61 | 250 | 6.0 | 11.0 | 0.00 | 0.36 | 0.36 | 84 | 1001.2 |
| 20260505031211 | 61 | 241 | 5.0 | 10.0 | 0.00 | 0.36 | 0.36 | 85 | 1001.1 |
| 20260505031103 | 61 | 240 | 5.0 | 10.0 | 0.00 | 0.36 | 0.36 | 85 | 1001.1 |
| 20260505031015 | 61 | 211 | 5.0 | 10.0 | 0.00 | 0.36 | 0.36 | 85 | 1001.1 |
| 20260505030906 | 60 | 244 | 6.0 | 10.0 | 0.00 | 0.36 | 0.36 | 85 | 1001.2 |
| 20260505030815 | 60 | 238 | 6.0 | 10.0 | 0.00 | 0.36 | 0.36 | 85 | 1001.0 |
| 20260505030708 | 60 | 246 | 6.0 | 9.0 | 0.00 | 0.36 | 0.36 | 86 | 1001.1 |
| 20260505030619 | 60 | 241 | 5.0 | 9.0 | 0.00 | 0.36 | 0.36 | 86 | 1001.1 |
| 20260505030532 | 60 | 241 | 5.0 | 9.0 | 0.00 | 0.36 | 0.36 | 86 | 1001.1 |
| 20260505030446 | 60 | 240 | 5.0 | 8.0 | 0.00 | 0.36 | 0.36 | 86 | 1001.1 |
| 20260505030357 | 60 | 277 | 5.0 | 8.0 | 0.00 | 0.36 | 0.36 | 86 | 1001.1 |
| 20260505030310 | 60 | 234 | 5.0 | 8.0 | 0.00 | 0.36 | 0.36 | 86 | 1000.9 |
| 20260505030159 | 60 | 214 | 5.0 | 8.0 | 0.00 | 0.36 | 0.36 | 86 | 1000.8 |
| 20260505030059 | 60 | 243 | 5.0 | 8.0 | 0.00 | 0.36 | 0.36 | 86 | 1000.9 |
| 20260505025927 | 60 | 263 | 4.0 | 9.0 | 0.00 | 0.36 | 0.36 | 86 | 1000.9 |
| 20260505025838 | 60 | 232 | 4.0 | 9.0 | 0.00 | 0.36 | 0.36 | 86 | 1000.9 |
| 20260505025727 | 60 | 249 | 5.0 | 9.0 | 0.00 | 0.36 | 0.36 | 86 | 1000.8 |
| 20260505025638 | 60 | 247 | 5.0 | 9.0 | 0.00 | 0.36 | 0.36 | 86 | 1000.9 |
| 20260505025508 | 60 | 238 | 5.0 | 9.0 | 0.00 | 0.36 | 0.36 | 86 | 1000.9 |
| 20260505025359 | 60 | 236 | 5.0 | 9.0 | 0.00 | 0.36 | 0.36 | 86 | 1000.8 |
| 20260505025315 | 60 | 242 | 4.0 | 9.0 | 0.00 | 0.36 | 0.36 | 86 | 1000.7 |
| 20260505025206 | 60 | 242 | 5.0 | 9.0 | 0.00 | 0.36 | 0.36 | 86 | 1000.6 |
| 20260505025116 | 60 | 238 | 4.0 | 9.0 | 0.00 | 0.36 | 0.36 | 86 | 1000.5 |
| 20260505025007 | 60 | 233 | 3.0 | 8.0 | 0.00 | 0.36 | 0.36 | 86 | 1000.5 |
| 20260505024918 | 60 | 186 | 3.0 | 8.0 | 0.00 | 0.36 | 0.36 | 86 | 1000.6 |
| 20260505024808 | 59 | 163 | 2.0 | 8.0 | 0.00 | 0.36 | 0.36 | 86 | 1000.6 |
| 20260505024659 | 59 | 275 | 3.0 | 8.0 | 0.00 | 0.36 | 0.36 | 86 | 1000.6 |
| 20260505024609 | 59 | 237 | 4.0 | 8.0 | 0.00 | 0.36 | 0.36 | 86 | 1000.7 |
| 20260505024532 | 59 | 248 | 4.0 | 8.0 | 0.00 | 0.36 | 0.36 | 86 | 1000.7 |
| 20260505024406 | 59 | 247 | 4.0 | 8.0 | 0.00 | 0.36 | 0.36 | 86 | 1000.8 |
| 20260505024317 | 59 | 247 | 5.0 | 8.0 | 0.00 | 0.36 | 0.36 | 86 | 1000.8 |
| 20260505024207 | 59 | 237 | 4.0 | 8.0 | 0.00 | 0.36 | 0.36 | 87 | 1000.8 |
| 20260505024118 | 59 | 207 | 3.0 | 8.0 | 0.00 | 0.36 | 0.36 | 87 | 1000.7 |
| 20260505024009 | 59 | 261 | 4.0 | 8.0 | 0.00 | 0.36 | 0.36 | 87 | 1000.6 |
| 20260505023918 | 59 | 235 | 4.0 | 8.0 | 0.00 | 0.36 | 0.36 | 87 | 1000.6 |
| 20260505023810 | 59 | 246 | 3.0 | 8.0 | 0.00 | 0.36 | 0.36 | 87 | 1000.6 |
| 20260505023721 | 59 | 234 | 3.0 | 8.0 | 0.00 | 0.36 | 0.36 | 87 | 1000.6 |
| 20260505023612 | 59 | 247 | 4.0 | 8.0 | 0.00 | 0.36 | 0.36 | 87 | 1000.5 |
| 20260505023506 | 59 | 219 | 4.0 | 8.0 | 0.00 | 0.36 | 0.36 | 87 | 1000.4 |
| 20260505023417 | 59 | 194 | 3.0 | 6.0 | 0.01 | 0.36 | 0.36 | 87 | 1000.4 |
| 20260505023330 | 59 | 294 | 2.0 | 6.0 | 0.01 | 0.36 | 0.36 | 87 | 1000.4 |
| 20260505023239 | 59 | 118 | 2.0 | 6.0 | 0.01 | 0.36 | 0.36 | 88 | 1000.4 |
| 20260505023108 | 59 | 247 | 2.0 | 4.0 | 0.01 | 0.36 | 0.36 | 88 | 1000.3 |
| 20260505023030 | 59 | 129 | 3.0 | 4.0 | 0.01 | 0.36 | 0.36 | 88 | 1000.3 |
| 20260505022920 | 59 | 148 | 2.0 | 4.0 | 0.01 | 0.36 | 0.36 | 88 | 1000.3 |
| 20260505022810 | 59 | 222 | 2.0 | 4.0 | 0.02 | 0.36 | 0.36 | 88 | 1000.3 |
| 20260505022659 | 59 | 171 | 1.0 | 4.0 | 0.03 | 0.36 | 0.36 | 88 | 1000.3 |
| 20260505022612 | 59 | 247 | 1.0 | 3.0 | 0.03 | 0.36 | 0.36 | 88 | 1000.3 |
| 20260505022526 | 59 | 115 | 1.0 | 3.0 | 0.04 | 0.36 | 0.36 | 88 | 1000.3 |
| 20260505022438 | 59 | 257 | 0.0 | 3.0 | 0.04 | 0.36 | 0.36 | 88 | 1000.3 |
| 20260505022307 | 59 | 188 | 0.0 | 3.0 | 0.06 | 0.36 | 0.36 | 88 | 1000.3 |
| 20260505022220 | 59 | 255 | 1.0 | 3.0 | 0.06 | 0.36 | 0.36 | 88 | 1000.2 |
| 20260505022111 | 59 | 259 | 1.0 | 3.0 | 0.07 | 0.36 | 0.36 | 88 | 1000.2 |
| 20260505022001 | 59 | 194 | 1.0 | 3.0 | 0.07 | 0.36 | 0.36 | 88 | 1000.1 |
| 20260505021912 | 59 | 194 | 1.0 | 3.0 | 0.07 | 0.36 | 0.36 | 88 | 1000.1 |
| 20260505021805 | 59 | 194 | 1.0 | 3.0 | 0.08 | 0.36 | 0.36 | 87 | 1000.1 |
| 20260505021715 | 59 | 194 | 1.0 | 3.0 | 0.08 | 0.36 | 0.36 | 88 | 1000.1 |
| 20260505021637 | 59 | 204 | 1.0 | 3.0 | 0.08 | 0.36 | 0.36 | 88 | 1000.1 |
| 20260505021521 | 59 | 159 | 1.0 | 3.0 | 0.10 | 0.36 | 0.36 | 88 | 1000.1 |
| 20260505021411 | 59 | 144 | 1.0 | 3.0 | 0.11 | 0.36 | 0.36 | 88 | 1000.1 |
| 20260505021302 | 59 | 171 | 1.0 | 3.0 | 0.12 | 0.36 | 0.36 | 88 | 1000.1 |
| 20260505021213 | 59 | 150 | 2.0 | 3.0 | 0.13 | 0.36 | 0.36 | 88 | 1000.1 |
| 20260505021105 | 59 | 157 | 1.0 | 4.0 | 0.15 | 0.36 | 0.36 | 88 | 1000.1 |
| 20260505021015 | 59 | 217 | 1.0 | 4.0 | 0.17 | 0.36 | 0.36 | 88 | 1000.1 |
| 20260505020908 | 59 | 217 | 0.0 | 6.0 | 0.20 | 0.36 | 0.36 | 88 | 1000.2 |
| 20260505020800 | 59 | 217 | 0.0 | 6.0 | 0.22 | 0.36 | 0.36 | 88 | 1000.2 |
| 20260505020710 | 59 | 217 | 1.0 | 6.0 | 0.22 | 0.36 | 0.36 | 88 | 1000.2 |
| 20260505020604 | 59 | 217 | 1.0 | 6.0 | 0.22 | 0.36 | 0.36 | 89 | 1000.4 |
| 20260505020515 | 59 | 217 | 1.0 | 6.0 | 0.22 | 0.36 | 0.36 | 89 | 1000.4 |
| 20260505020405 | 59 | 231 | 2.0 | 8.0 | 0.22 | 0.36 | 0.36 | 89 | 1000.3 |
| 20260505020319 | 59 | 229 | 2.0 | 8.0 | 0.22 | 0.36 | 0.36 | 89 | 1000.4 |
| 20260505020209 | 59 | 259 | 1.0 | 8.0 | 0.22 | 0.36 | 0.36 | 89 | 1000.4 |
| 20260505020100 | 59 | 217 | 3.0 | 8.0 | 0.22 | 0.36 | 0.36 | 89 | 1000.4 |
| 20260505020022 | 59 | 216 | 3.0 | 8.0 | 0.22 | 0.36 | 0.36 | 89 | 1000.6 |
| 20260505015912 | 59 | 230 | 3.0 | 8.0 | 0.22 | 0.36 | 0.36 | 89 | 1000.5 |
| 20260505015808 | 59 | 248 | 2.0 | 8.0 | 0.22 | 0.36 | 0.36 | 89 | 1000.6 |
| 20260505015659 | 58 | 232 | 4.0 | 8.0 | 0.22 | 0.36 | 0.36 | 90 | 1000.7 |
| 20260505015610 | 58 | 234 | 4.0 | 8.0 | 0.22 | 0.36 | 0.36 | 89 | 1000.9 |
| 20260505015521 | 58 | 240 | 3.0 | 7.0 | 0.22 | 0.36 | 0.36 | 90 | 1000.9 |
| 20260505015411 | 58 | 267 | 3.0 | 7.0 | 0.22 | 0.36 | 0.36 | 89 | 1000.9 |
| 20260505015303 | 58 | 213 | 2.0 | 4.0 | 0.22 | 0.36 | 0.36 | 89 | 1000.8 |
| 20260505015213 | 58 | 213 | 1.0 | 3.0 | 0.22 | 0.36 | 0.36 | 89 | 1000.9 |
| 20260505015104 | 58 | 140 | 0.0 | 2.0 | 0.22 | 0.36 | 0.36 | 89 | 1000.8 |
| 20260505015014 | 58 | 140 | 0.0 | 4.0 | 0.22 | 0.36 | 0.36 | 89 | 1000.8 |
| 20260505014909 | 58 | 140 | 0.0 | 4.0 | 0.22 | 0.36 | 0.36 | 89 | 1000.8 |
| 20260505014819 | 58 | 140 | 0.0 | 4.0 | 0.22 | 0.36 | 0.36 | 89 | 1000.9 |
| 20260505014709 | 58 | 140 | 0.0 | 4.0 | 0.22 | 0.36 | 0.36 | 89 | 1000.9 |
| 20260505014600 | 58 | 140 | 0.0 | 4.0 | 0.22 | 0.36 | 0.36 | 89 | 1001.0 |
| 20260505014523 | 58 | 140 | 0.0 | 4.0 | 0.22 | 0.36 | 0.36 | 89 | 1000.7 |
| 20260505014411 | 58 | 140 | 1.0 | 4.0 | 0.22 | 0.36 | 0.36 | 89 | 1000.6 |
| 20260505014302 | 58 | 140 | 2.0 | 4.0 | 0.22 | 0.36 | 0.36 | 88 | 1000.7 |
| 20260505014213 | 58 | 140 | 1.0 | 4.0 | 0.22 | 0.36 | 0.36 | 88 | 1000.6 |
| 20260505014105 | 58 | 185 | 1.0 | 4.0 | 0.22 | 0.36 | 0.36 | 88 | 1000.5 |
| 20260505014000 | 58 | 185 | 1.0 | 7.0 | 0.22 | 0.36 | 0.36 | 88 | 1000.4 |
| 20260505013912 | 58 | 185 | 0.0 | 8.0 | 0.22 | 0.36 | 0.36 | 88 | 1000.5 |
| 20260505013822 | 58 | 185 | 0.0 | 8.0 | 0.22 | 0.36 | 0.36 | 88 | 1000.5 |
| 20260505013712 | 59 | 185 | 0.0 | 8.0 | 0.22 | 0.36 | 0.36 | 88 | 1000.5 |
| 20260505013622 | 58 | 185 | 1.0 | 8.0 | 0.22 | 0.36 | 0.36 | 88 | 1000.5 |
| 20260505013532 | 59 | 178 | 1.0 | 11.0 | 0.22 | 0.36 | 0.36 | 88 | 1000.6 |
| 20260505013400 | 59 | 215 | 2.0 | 15.0 | 0.21 | 0.35 | 0.35 | 88 | 1000.8 |
| 20260505013312 | 59 | 142 | 3.0 | 15.0 | 0.21 | 0.35 | 0.35 | 87 | 1000.8 |
| 20260505013201 | 59 | 152 | 3.0 | 15.0 | 0.21 | 0.35 | 0.35 | 87 | 1000.9 |
| 20260505013113 | 59 | 117 | 4.0 | 15.0 | 0.21 | 0.35 | 0.35 | 87 | 1001.1 |
| 20260505013038 | 59 | 260 | 4.0 | 15.0 | 0.21 | 0.35 | 0.35 | 87 | 1001.1 |
| 20260505012928 | 59 | 281 | 5.0 | 15.0 | 0.21 | 0.35 | 0.35 | 86 | 1001.2 |
| 20260505012838 | 59 | 234 | 6.0 | 15.0 | 0.20 | 0.34 | 0.34 | 86 | 1001.3 |
| 20260505012709 | 59 | 246 | 7.0 | 15.0 | 0.19 | 0.33 | 0.33 | 86 | 1001.5 |
| 20260505012619 | 59 | 240 | 5.0 | 14.0 | 0.19 | 0.33 | 0.33 | 86 | 1001.6 |
| 20260505012509 | 59 | 245 | 3.0 | 13.0 | 0.18 | 0.32 | 0.32 | 86 | 1001.6 |
| 20260505012418 | 59 | 238 | 3.0 | 13.0 | 0.17 | 0.31 | 0.31 | 86 | 1001.7 |
| 20260505012308 | 60 | 269 | 4.0 | 13.0 | 0.16 | 0.30 | 0.30 | 86 | 1001.8 |
| 20260505012219 | 60 | 270 | 6.0 | 13.0 | 0.15 | 0.29 | 0.29 | 85 | 1001.8 |
| 20260505012112 | 60 | 317 | 8.0 | 17.0 | 0.15 | 0.29 | 0.29 | 85 | 1001.9 |
| 20260505012004 | 60 | 287 | 7.0 | 17.0 | 0.15 | 0.29 | 0.29 | 84 | 1001.9 |
| 20260505011915 | 60 | 300 | 5.0 | 21.0 | 0.15 | 0.29 | 0.29 | 84 | 1002.1 |
| 20260505011826 | 61 | 284 | 5.0 | 27.0 | 0.14 | 0.28 | 0.28 | 83 | 1002.1 |
| 20260505011714 | 61 | 268 | 6.0 | 27.0 | 0.14 | 0.28 | 0.28 | 82 | 1002.0 |
| 20260505011604 | 62 | 261 | 5.0 | 27.0 | 0.12 | 0.26 | 0.26 | 81 | 1001.8 |
| 20260505011526 | 62 | 285 | 7.0 | 27.0 | 0.11 | 0.25 | 0.25 | 80 | 1001.9 |
| 20260505011417 | 63 | 281 | 9.0 | 27.0 | 0.11 | 0.25 | 0.25 | 80 | 1002.0 |
| 20260505011326 | 63 | 298 | 9.0 | 27.0 | 0.10 | 0.24 | 0.24 | 78 | 1002.2 |
| 20260505011238 | 64 | 271 | 10.0 | 27.0 | 0.09 | 0.23 | 0.23 | 77 | 1002.4 |
| 20260505011111 | 65 | 327 | 12.0 | 27.0 | 0.07 | 0.21 | 0.21 | 75 | 1002.3 |
| 20260505011001 | 66 | 284 | 9.0 | 27.0 | 0.03 | 0.17 | 0.17 | 74 | 1002.4 |
| 20260505010913 | 66 | 263 | 7.0 | 18.0 | 0.01 | 0.15 | 0.15 | 74 | 1002.4 |
| 20260505010804 | 66 | 259 | 8.0 | 18.0 | 0.00 | 0.14 | 0.14 | 73 | 1002.0 |
| 20260505010715 | 66 | 259 | 11.0 | 22.0 | 0.00 | 0.14 | 0.14 | 72 | 1001.7 |
| 20260505010606 | 66 | 301 | 10.0 | 22.0 | 0.00 | 0.14 | 0.14 | 72 | 1001.1 |
| 20260505010516 | 66 | 325 | 10.0 | 22.0 | 0.00 | 0.14 | 0.14 | 72 | 1000.7 |
| 20260505010428 | 67 | 333 | 10.0 | 22.0 | 0.00 | 0.14 | 0.14 | 71 | 1000.6 |
| 20260505010341 | 67 | 300 | 10.0 | 22.0 | 0.00 | 0.14 | 0.14 | 70 | 1000.7 |
| 20260505010230 | 67 | 290 | 9.0 | 22.0 | 0.00 | 0.14 | 0.14 | 71 | 1000.8 |
| 20260505010144 | 67 | 261 | 11.0 | 22.0 | 0.00 | 0.14 | 0.14 | 71 | 1000.8 |
| 20260505010045 | 67 | 306 | 13.0 | 22.0 | 0.00 | 0.14 | 0.14 | 71 | 1001.0 |
| 20260505005915 | 67 | 320 | 11.0 | 22.0 | 0.00 | 0.14 | 0.14 | 71 | 1000.9 |
| 20260505005826 | 67 | 344 | 9.0 | 14.0 | 0.00 | 0.14 | 0.14 | 71 | 1000.9 |
| 20260505005715 | 67 | 305 | 8.0 | 12.0 | 0.00 | 0.14 | 0.14 | 71 | 1000.8 |
| 20260505005605 | 67 | 313 | 5.0 | 12.0 | 0.00 | 0.14 | 0.14 | 71 | 1000.7 |
| 20260505005516 | 67 | 274 | 5.0 | 12.0 | 0.00 | 0.14 | 0.14 | 71 | 1000.7 |
| 20260505005408 | 67 | 273 | 6.0 | 12.0 | 0.00 | 0.14 | 0.14 | 71 | 1000.6 |
| 20260505005317 | 67 | 263 | 7.0 | 12.0 | 0.00 | 0.14 | 0.14 | 71 | 1000.4 |
| 20260505005208 | 67 | 249 | 9.0 | 16.0 | 0.00 | 0.14 | 0.14 | 70 | 1000.2 |
| 20260505005103 | 67 | 239 | 8.0 | 16.0 | 0.00 | 0.14 | 0.14 | 71 | 1000.1 |
| 20260505005014 | 67 | 260 | 8.0 | 16.0 | 0.00 | 0.14 | 0.14 | 71 | 1000.0 |
| 20260505004926 | 67 | 239 | 9.0 | 16.0 | 0.00 | 0.14 | 0.14 | 71 | 999.9 |
| 20260505004815 | 67 | 234 | 8.0 | 16.0 | 0.00 | 0.14 | 0.14 | 72 | 999.7 |
| 20260505004705 | 67 | 254 | 7.0 | 16.0 | 0.00 | 0.14 | 0.14 | 71 | 999.6 |
| 20260505004615 | 67 | 234 | 8.0 | 16.0 | 0.00 | 0.14 | 0.14 | 72 | 999.6 |
| 20260505004539 | 67 | 238 | 8.0 | 16.0 | 0.01 | 0.14 | 0.14 | 72 | 999.4 |
| 20260505004408 | 67 | 238 | 8.0 | 16.0 | 0.02 | 0.14 | 0.14 | 72 | 999.4 |
| 20260505004318 | 67 | 237 | 7.0 | 16.0 | 0.02 | 0.14 | 0.14 | 73 | 999.4 |
| 20260505004228 | 67 | 233 | 6.0 | 10.0 | 0.05 | 0.14 | 0.14 | 74 | 999.4 |
| 20260505004103 | 66 | 240 | 6.0 | 10.0 | 0.07 | 0.14 | 0.14 | 74 | 999.3 |
| 20260505004015 | 66 | 236 | 6.0 | 10.0 | 0.08 | 0.14 | 0.14 | 74 | 999.3 |
| 20260505003907 | 66 | 244 | 6.0 | 10.0 | 0.08 | 0.14 | 0.14 | 74 | 999.3 |
| 20260505003817 | 66 | 225 | 6.0 | 10.0 | 0.08 | 0.14 | 0.14 | 75 | 999.2 |
| 20260505003708 | 66 | 236 | 6.0 | 10.0 | 0.08 | 0.14 | 0.14 | 76 | 999.2 |
| 20260505003619 | 66 | 246 | 6.0 | 10.0 | 0.08 | 0.14 | 0.14 | 77 | 999.3 |
| 20260505003510 | 66 | 215 | 6.0 | 10.0 | 0.09 | 0.14 | 0.14 | 77 | 999.2 |
| 20260505003421 | 66 | 249 | 6.0 | 10.0 | 0.09 | 0.14 | 0.14 | 77 | 999.3 |
| 20260505003313 | 66 | 245 | 6.0 | 10.0 | 0.10 | 0.14 | 0.14 | 77 | 999.1 |
| 20260505003207 | 66 | 225 | 5.0 | 9.0 | 0.10 | 0.14 | 0.14 | 78 | 999.1 |
| 20260505003119 | 66 | 230 | 4.0 | 9.0 | 0.10 | 0.14 | 0.14 | 78 | 999.1 |
| 20260505003040 | 65 | 219 | 5.0 | 9.0 | 0.10 | 0.14 | 0.14 | 79 | 999.2 |
| 20260505002910 | 65 | 163 | 5.0 | 9.0 | 0.10 | 0.14 | 0.14 | 80 | 999.1 |
| 20260505002820 | 65 | 219 | 5.0 | 9.0 | 0.10 | 0.14 | 0.14 | 80 | 999.2 |
| 20260505002732 | 65 | 237 | 4.0 | 7.0 | 0.10 | 0.14 | 0.14 | 81 | 999.2 |
| 20260505002621 | 65 | 244 | 3.0 | 7.0 | 0.10 | 0.14 | 0.14 | 81 | 999.2 |
| 20260505002510 | 65 | 200 | 3.0 | 9.0 | 0.10 | 0.14 | 0.14 | 81 | 999.2 |
| 20260505002400 | 65 | 240 | 2.0 | 9.0 | 0.10 | 0.14 | 0.14 | 81 | 999.3 |
| 20260505002312 | 65 | 276 | 2.0 | 9.0 | 0.10 | 0.14 | 0.14 | 81 | 999.2 |
| 20260505002226 | 65 | 224 | 2.0 | 9.0 | 0.10 | 0.14 | 0.14 | 81 | 999.3 |
| 20260505002137 | 65 | 238 | 2.0 | 9.0 | 0.10 | 0.14 | 0.14 | 81 | 999.3 |
| 20260505002007 | 65 | 248 | 3.0 | 9.0 | 0.10 | 0.14 | 0.14 | 81 | 999.3 |
| 20260505001919 | 65 | 276 | 4.0 | 9.0 | 0.10 | 0.14 | 0.14 | 81 | 999.1 |
| 20260505001830 | 65 | 248 | 4.0 | 9.0 | 0.10 | 0.14 | 0.14 | 81 | 999.1 |
| 20260505001720 | 65 | 238 | 3.0 | 9.0 | 0.10 | 0.14 | 0.14 | 81 | 999.0 |
| 20260505001631 | 65 | 241 | 3.0 | 9.0 | 0.10 | 0.14 | 0.14 | 81 | 999.0 |
| 20260505001554 | 65 | 225 | 3.0 | 9.0 | 0.10 | 0.14 | 0.14 | 82 | 999.0 |
| 20260505001403 | 65 | 138 | 2.0 | 9.0 | 0.10 | 0.14 | 0.14 | 82 | 999.0 |
| 20260505001315 | 65 | 221 | 2.0 | 9.0 | 0.10 | 0.14 | 0.14 | 82 | 998.9 |
| 20260505001209 | 65 | 157 | 3.0 | 10.0 | 0.10 | 0.14 | 0.14 | 82 | 999.0 |
| 20260505001101 | 65 | 236 | 3.0 | 10.0 | 0.10 | 0.14 | 0.14 | 82 | 999.0 |
| 20260505001011 | 65 | 244 | 3.0 | 10.0 | 0.10 | 0.14 | 0.14 | 83 | 999.0 |
| 20260505000902 | 64 | 234 | 3.0 | 10.0 | 0.10 | 0.14 | 0.14 | 83 | 999.0 |
| 20260505000813 | 64 | 235 | 4.0 | 10.0 | 0.10 | 0.14 | 0.14 | 83 | 999.0 |
| 20260505000703 | 64 | 248 | 4.0 | 10.0 | 0.10 | 0.14 | 0.14 | 84 | 999.0 |
| 20260505000614 | 64 | 223 | 5.0 | 10.0 | 0.10 | 0.14 | 0.14 | 84 | 999.1 |
| 20260505000504 | 64 | 205 | 4.0 | 10.0 | 0.10 | 0.14 | 0.14 | 85 | 999.0 |
| 20260505000414 | 64 | 265 | 4.0 | 10.0 | 0.10 | 0.14 | 0.14 | 85 | 999.1 |
| 20260505000310 | 64 | 259 | 3.0 | 7.0 | 0.10 | 0.14 | 0.14 | 85 | 999.1 |
| 20260505000219 | 64 | 182 | 3.0 | 6.0 | 0.10 | 0.14 | 0.14 | 85 | 999.1 |
| 20260505000110 | 64 | 212 | 3.0 | 5.0 | 0.10 | 0.14 | 0.14 | 86 | 999.1 |
| 20260505000031 | 64 | 243 | 2.0 | 5.0 | 0.10 | 0.14 | 0.14 | 86 | 999.1 |
| 20260504235901 | 64 | 258 | 1.0 | 5.0 | 0.10 | 0.14 | 0.14 | 85 | 999.2 |
| 20260504235813 | 64 | 258 | 1.0 | 7.0 | 0.10 | 0.14 | 0.14 | 85 | 999.3 |
| 20260504235703 | 64 | 258 | 2.0 | 7.0 | 0.10 | 0.14 | 0.14 | 84 | 999.4 |
| 20260504235615 | 64 | 258 | 2.0 | 9.0 | 0.10 | 0.14 | 0.14 | 84 | 999.4 |
| 20260504235510 | 64 | 258 | 2.0 | 9.0 | 0.10 | 0.14 | 0.14 | 84 | 999.4 |
| 20260504235421 | 65 | 252 | 2.0 | 9.0 | 0.10 | 0.14 | 0.14 | 84 | 999.4 |
| 20260504235311 | 65 | 252 | 2.0 | 10.0 | 0.10 | 0.14 | 0.14 | 83 | 999.4 |
| 20260504235222 | 65 | 252 | 2.0 | 10.0 | 0.10 | 0.14 | 0.14 | 83 | 999.5 |
| 20260504235113 | 65 | 252 | 3.0 | 12.0 | 0.10 | 0.14 | 0.14 | 83 | 999.7 |
| 20260504235005 | 65 | 279 | 4.0 | 15.0 | 0.10 | 0.14 | 0.14 | 82 | 999.7 |
| 20260504234916 | 65 | 252 | 5.0 | 16.0 | 0.10 | 0.14 | 0.14 | 81 | 999.9 |
| 20260504234807 | 66 | 277 | 5.0 | 16.0 | 0.10 | 0.14 | 0.14 | 81 | 999.8 |
| 20260504234719 | 66 | 269 | 6.0 | 16.0 | 0.11 | 0.14 | 0.14 | 80 | 999.8 |
| 20260504234609 | 66 | 244 | 7.0 | 16.0 | 0.10 | 0.13 | 0.13 | 79 | 999.6 |
| 20260504234535 | 66 | 243 | 7.0 | 16.0 | 0.10 | 0.13 | 0.13 | 79 | 999.6 |
| 20260504234424 | 67 | 251 | 8.0 | 16.0 | 0.10 | 0.12 | 0.12 | 78 | 999.5 |
| 20260504234313 | 67 | 244 | 11.0 | 16.0 | 0.11 | 0.11 | 0.11 | 77 | 999.6 |
| 20260504234202 | 68 | 238 | 11.0 | 16.0 | 0.07 | 0.07 | 0.07 | 76 | 999.8 |
| 20260504234113 | 68 | 261 | 9.0 | 14.0 | 0.06 | 0.06 | 0.06 | 75 | 999.7 |
| 20260504234003 | 68 | 246 | 8.0 | 14.0 | 0.06 | 0.06 | 0.06 | 74 | 999.7 |
| 20260504233914 | 68 | 263 | 7.0 | 14.0 | 0.06 | 0.06 | 0.06 | 74 | 999.6 |
| 20260504233805 | 68 | 244 | 9.0 | 14.0 | 0.06 | 0.06 | 0.06 | 73 | 999.7 |
| 20260504233719 | 69 | 169 | 9.0 | 14.0 | 0.06 | 0.06 | 0.06 | 74 | 999.7 |
| 20260504233612 | 69 | 207 | 9.0 | 14.0 | 0.06 | 0.06 | 0.06 | 75 | 999.8 |
| 20260504233523 | 69 | 239 | 10.0 | 14.0 | 0.05 | 0.05 | 0.05 | 74 | 999.9 |
| 20260504233434 | 69 | 252 | 8.0 | 13.0 | 0.04 | 0.04 | 0.04 | 74 | 999.7 |
| 20260504233307 | 68 | 240 | 6.0 | 11.0 | 0.04 | 0.04 | 0.04 | 75 | 999.5 |
| 20260504233217 | 68 | 238 | 6.0 | 11.0 | 0.04 | 0.04 | 0.04 | 75 | 999.5 |
| 20260504233129 | 68 | 236 | 6.0 | 11.0 | 0.04 | 0.04 | 0.04 | 75 | 999.3 |
| 20260504233030 | 68 | 179 | 6.0 | 11.0 | 0.04 | 0.04 | 0.04 | 75 | 999.3 |
| 20260504232901 | 68 | 265 | 7.0 | 11.0 | 0.04 | 0.04 | 0.04 | 75 | 999.4 |
| 20260504232811 | 68 | 227 | 7.0 | 10.0 | 0.04 | 0.04 | 0.04 | 76 | 999.3 |
| 20260504232703 | 67 | 233 | 7.0 | 10.0 | 0.04 | 0.04 | 0.04 | 76 | 999.3 |
| 20260504232618 | 67 | 215 | 7.0 | 10.0 | 0.04 | 0.04 | 0.04 | 77 | 999.3 |
| 20260504232508 | 67 | 210 | 6.0 | 10.0 | 0.04 | 0.04 | 0.04 | 78 | 999.1 |
| 20260504232400 | 67 | 140 | 4.0 | 9.0 | 0.04 | 0.04 | 0.04 | 78 | 999.0 |
| 20260504232311 | 67 | 231 | 3.0 | 8.0 | 0.04 | 0.04 | 0.04 | 78 | 998.9 |
| 20260504232201 | 66 | 279 | 3.0 | 8.0 | 0.04 | 0.04 | 0.04 | 79 | 999.0 |
| 20260504232112 | 66 | 280 | 3.0 | 8.0 | 0.04 | 0.04 | 0.04 | 79 | 999.0 |
| 20260504232003 | 66 | 161 | 4.0 | 8.0 | 0.04 | 0.04 | 0.04 | 80 | 999.0 |
| 20260504231913 | 66 | 230 | 5.0 | 8.0 | 0.04 | 0.04 | 0.04 | 80 | 999.0 |
| 20260504231808 | 66 | 225 | 4.0 | 8.0 | 0.04 | 0.04 | 0.04 | 80 | 999.1 |
| 20260504231719 | 66 | 243 | 2.0 | 7.0 | 0.04 | 0.04 | 0.04 | 81 | 999.2 |
| 20260504231609 | 66 | 234 | 2.0 | 4.0 | 0.04 | 0.04 | 0.04 | 81 | 999.3 |
| 20260504231531 | 66 | 191 | 2.0 | 4.0 | 0.04 | 0.04 | 0.04 | 81 | 999.3 |
| 20260504231400 | 66 | 210 | 1.0 | 4.0 | 0.04 | 0.04 | 0.04 | 81 | 999.4 |
| 20260504231310 | 66 | 167 | 1.0 | 4.0 | 0.04 | 0.04 | 0.04 | 81 | 999.3 |
| 20260504231201 | 66 | 146 | 1.0 | 4.0 | 0.04 | 0.04 | 0.04 | 81 | 999.3 |
| 20260504231112 | 66 | 231 | 1.0 | 4.0 | 0.04 | 0.04 | 0.04 | 81 | 999.4 |
| 20260504231002 | 66 | 231 | 1.0 | 4.0 | 0.04 | 0.04 | 0.04 | 80 | 999.4 |
| 20260504230916 | 66 | 299 | 1.0 | 4.0 | 0.04 | 0.04 | 0.04 | 80 | 999.5 |
| 20260504230827 | 66 | 225 | 0.0 | 4.0 | 0.04 | 0.04 | 0.04 | 80 | 999.5 |
| 20260504230738 | 66 | 157 | 0.0 | 4.0 | 0.04 | 0.04 | 0.04 | 80 | 999.5 |
| 20260504230649 | 66 | 157 | 1.0 | 5.0 | 0.04 | 0.04 | 0.04 | 80 | 999.5 |
| 20260504230539 | 66 | 251 | 2.0 | 5.0 | 0.04 | 0.04 | 0.04 | 80 | 999.6 |
| 20260504230409 | 66 | 251 | 2.0 | 7.0 | 0.04 | 0.04 | 0.04 | 79 | 999.6 |
| 20260504230322 | 66 | 251 | 2.0 | 7.0 | 0.04 | 0.04 | 0.04 | 79 | 999.6 |
| 20260504230231 | 66 | 251 | 1.0 | 10.0 | 0.04 | 0.04 | 0.04 | 78 | 999.6 |
| 20260504230141 | 66 | 251 | 1.0 | 10.0 | 0.04 | 0.04 | 0.04 | 78 | 999.6 |
| 20260504230104 | 67 | 251 | 2.0 | 10.0 | 0.04 | 0.04 | 0.04 | 78 | 999.6 |
| 20260504225933 | 67 | 251 | 3.0 | 10.0 | 0.04 | 0.04 | 0.04 | 77 | 999.5 |
| 20260504225823 | 67 | 216 | 3.0 | 10.0 | 0.04 | 0.04 | 0.04 | 76 | 999.7 |
| 20260504225739 | 67 | 240 | 3.0 | 10.0 | 0.04 | 0.04 | 0.04 | 76 | 999.7 |
| 20260504225649 | 68 | 238 | 4.0 | 10.0 | 0.04 | 0.04 | 0.04 | 75 | 999.7 |
| 20260504225538 | 68 | 242 | 4.0 | 11.0 | 0.04 | 0.04 | 0.04 | 74 | 999.8 |
| 20260504225408 | 68 | 238 | 3.0 | 13.0 | 0.04 | 0.04 | 0.04 | 73 | 999.8 |
| 20260504225318 | 69 | 234 | 3.0 | 13.0 | 0.04 | 0.04 | 0.04 | 73 | 999.9 |
| 20260504225209 | 69 | 262 | 4.0 | 16.0 | 0.04 | 0.04 | 0.04 | 72 | 999.8 |
| 20260504225120 | 69 | 213 | 4.0 | 16.0 | 0.04 | 0.04 | 0.04 | 71 | 999.9 |
| 20260504225032 | 70 | 260 | 4.0 | 16.0 | 0.04 | 0.04 | 0.04 | 68 | 999.9 |
| 20260504224901 | 71 | 271 | 5.0 | 16.0 | 0.04 | 0.04 | 0.04 | 68 | 999.9 |
| 20260504224812 | 71 | 261 | 6.0 | 16.0 | 0.04 | 0.04 | 0.04 | 67 | 1000.0 |
| 20260504224707 | 72 | 240 | 7.0 | 16.0 | 0.03 | 0.03 | 0.03 | 65 | 1000.0 |
| 20260504224617 | 72 | 311 | 8.0 | 16.0 | 0.03 | 0.03 | 0.03 | 64 | 1000.0 |
| 20260504224539 | 73 | 234 | 8.0 | 16.0 | 0.03 | 0.03 | 0.03 | 63 | 1000.1 |
| 20260504224408 | 73 | 219 | 8.0 | 16.0 | 0.00 | 0.00 | 0.00 | 57 | 1000.3 |
| 20260504224318 | 73 | 277 | 9.0 | 17.0 | 0.00 | 0.00 | 0.00 | 57 | 1000.0 |
| 20260504224228 | 73 | 281 | 9.0 | 17.0 | 0.00 | 0.00 | 0.00 | 57 | 999.9 |
| 20260504224117 | 73 | 244 | 9.0 | 18.0 | 0.00 | 0.00 | 0.00 | 56 | 999.8 |
| 20260504224006 | 73 | 236 | 8.0 | 18.0 | 0.00 | 0.00 | 0.00 | 56 | 999.8 |
| 20260504223917 | 73 | 228 | 8.0 | 18.0 | 0.00 | 0.00 | 0.00 | 56 | 999.7 |
| 20260504223809 | 74 | 232 | 11.0 | 18.0 | 0.00 | 0.00 | 0.00 | 55 | 999.7 |
| 20260504223702 | 74 | 235 | 12.0 | 18.0 | 0.00 | 0.00 | 0.00 | 55 | 999.5 |
| 20260504223613 | 74 | 237 | 12.0 | 18.0 | 0.00 | 0.00 | 0.00 | 54 | 999.5 |
| 20260504223503 | 74 | 244 | 13.0 | 18.0 | 0.00 | 0.00 | 0.00 | 54 | 999.5 |
| 20260504223416 | 74 | 229 | 13.0 | 18.0 | 0.00 | 0.00 | 0.00 | 54 | 999.5 |
| 20260504223307 | 75 | 232 | 11.0 | 20.0 | 0.00 | 0.00 | 0.00 | 54 | 999.5 |
| 20260504223217 | 75 | 262 | 10.0 | 20.0 | 0.00 | 0.00 | 0.00 | 53 | 999.6 |
| 20260504223108 | 75 | 249 | 10.0 | 23.0 | 0.00 | 0.00 | 0.00 | 53 | 999.4 |
| 20260504223030 | 75 | 207 | 11.0 | 23.0 | 0.00 | 0.00 | 0.00 | 52 | 999.5 |
| 20260504222920 | 75 | 269 | 9.0 | 23.0 | 0.00 | 0.00 | 0.00 | 51 | 999.3 |
| 20260504222835 | 75 | 289 | 10.0 | 23.0 | 0.00 | 0.00 | 0.00 | 51 | 999.3 |
| 20260504222705 | 75 | 150 | 10.0 | 23.0 | 0.00 | 0.00 | 0.00 | 50 | 999.5 |
| 20260504222615 | 75 | 201 | 9.0 | 23.0 | 0.00 | 0.00 | 0.00 | 50 | 999.5 |
| 20260504222506 | 76 | 219 | 12.0 | 23.0 | 0.00 | 0.00 | 0.00 | 50 | 999.4 |
| 20260504222417 | 76 | 246 | 15.0 | 23.0 | 0.00 | 0.00 | 0.00 | 49 | 999.6 |
| 20260504222326 | 76 | 229 | 12.0 | 23.0 | 0.00 | 0.00 | 0.00 | 48 | 999.4 |
| 20260504222216 | 76 | 234 | 9.0 | 18.0 | 0.00 | 0.00 | 0.00 | 48 | 999.5 |
| 20260504222106 | 76 | 241 | 10.0 | 18.0 | 0.00 | 0.00 | 0.00 | 48 | 999.2 |
| 20260504222017 | 76 | 269 | 11.0 | 18.0 | 0.00 | 0.00 | 0.00 | 47 | 999.3 |
| 20260504221912 | 76 | 234 | 11.0 | 18.0 | 0.00 | 0.00 | 0.00 | 48 | 999.3 |
| 20260504221824 | 76 | 259 | 11.0 | 18.0 | 0.00 | 0.00 | 0.00 | 48 | 999.1 |
| 20260504221713 | 77 | 224 | 12.0 | 18.0 | 0.00 | 0.00 | 0.00 | 48 | 999.1 |
| 20260504221605 | 77 | 278 | 11.0 | 18.0 | 0.00 | 0.00 | 0.00 | 48 | 999.2 |
| 20260504221527 | 76 | 241 | 9.0 | 18.0 | 0.00 | 0.00 | 0.00 | 48 | 999.1 |
| 20260504221416 | 76 | 249 | 7.0 | 18.0 | 0.00 | 0.00 | 0.00 | 49 | 999.3 |
| 20260504221306 | 76 | 234 | 6.0 | 18.0 | 0.00 | 0.00 | 0.00 | 49 | 999.3 |
| 20260504221218 | 76 | 236 | 6.0 | 18.0 | 0.00 | 0.00 | 0.00 | 49 | 999.2 |
| 20260504221127 | 76 | 144 | 6.0 | 18.0 | 0.00 | 0.00 | 0.00 | 49 | 999.3 |
| 20260504221038 | 76 | 254 | 6.0 | 18.0 | 0.00 | 0.00 | 0.00 | 48 | 999.3 |
| 20260504220927 | 76 | 226 | 7.0 | 18.0 | 0.00 | 0.00 | 0.00 | 47 | 999.3 |
| 20260504220802 | 76 | 263 | 8.0 | 18.0 | 0.00 | 0.00 | 0.00 | 48 | 999.3 |
| 20260504220712 | 76 | 269 | 8.0 | 18.0 | 0.00 | 0.00 | 0.00 | 48 | 999.3 |
| 20260504220624 | 76 | 207 | 6.0 | 9.0 | 0.00 | 0.00 | 0.00 | 48 | 999.4 |
| 20260504220534 | 76 | 240 | 5.0 | 13.0 | 0.00 | 0.00 | 0.00 | 48 | 999.3 |
| 20260504220446 | 76 | 249 | 4.0 | 13.0 | 0.00 | 0.00 | 0.00 | 47 | 999.3 |
| 20260504220358 | 76 | 174 | 4.0 | 13.0 | 0.00 | 0.00 | 0.00 | 47 | 999.4 |
| 20260504220247 | 76 | 227 | 4.0 | 13.0 | 0.00 | 0.00 | 0.00 | 46 | 999.4 |
| 20260504220137 | 76 | 202 | 4.0 | 13.0 | 0.00 | 0.00 | 0.00 | 46 | 999.4 |
| 20260504220059 | 76 | 269 | 4.0 | 15.0 | 0.00 | 0.00 | 0.00 | 47 | 999.4 |
| 20260504215926 | 76 | 263 | 5.0 | 15.0 | 0.00 | 0.00 | 0.00 | 46 | 999.4 |
| 20260504215837 | 76 | 282 | 5.0 | 15.0 | 0.00 | 0.00 | 0.00 | 47 | 999.5 |
| 20260504215711 | 76 | 271 | 4.0 | 15.0 | 0.00 | 0.00 | 0.00 | 46 | 999.4 |
| 20260504215603 | 76 | 267 | 3.0 | 15.0 | 0.00 | 0.00 | 0.00 | 45 | 999.4 |
| 20260504215515 | 77 | 244 | 4.0 | 15.0 | 0.00 | 0.00 | 0.00 | 45 | 999.5 |
| 20260504215428 | 77 | 282 | 6.0 | 15.0 | 0.00 | 0.00 | 0.00 | 44 | 999.5 |
| 20260504215340 | 77 | 235 | 8.0 | 15.0 | 0.00 | 0.00 | 0.00 | 45 | 999.5 |
| 20260504215229 | 77 | 261 | 6.0 | 15.0 | 0.00 | 0.00 | 0.00 | 45 | 999.5 |
| 20260504215118 | 77 | 205 | 5.0 | 14.0 | 0.00 | 0.00 | 0.00 | 45 | 999.6 |
| 20260504215010 | 77 | 270 | 7.0 | 14.0 | 0.00 | 0.00 | 0.00 | 44 | 999.6 |
| 20260504214901 | 78 | 261 | 8.0 | 14.0 | 0.00 | 0.00 | 0.00 | 44 | 999.5 |
| 20260504214813 | 78 | 246 | 8.0 | 14.0 | 0.00 | 0.00 | 0.00 | 45 | 999.5 |
| 20260504214706 | 78 | 254 | 7.0 | 14.0 | 0.00 | 0.00 | 0.00 | 43 | 999.5 |
| 20260504214616 | 78 | 241 | 7.0 | 14.0 | 0.00 | 0.00 | 0.00 | 43 | 999.4 |
| 20260504214538 | 78 | 242 | 8.0 | 14.0 | 0.00 | 0.00 | 0.00 | 43 | 999.5 |
| 20260504214427 | 78 | 239 | 6.0 | 14.0 | 0.00 | 0.00 | 0.00 | 44 | 999.6 |
| 20260504214338 | 78 | 298 | 5.0 | 13.0 | 0.00 | 0.00 | 0.00 | 45 | 999.6 |
| 20260504214227 | 78 | 173 | 7.0 | 13.0 | 0.00 | 0.00 | 0.00 | 44 | 999.5 |
| 20260504214116 | 78 | 269 | 6.0 | 13.0 | 0.00 | 0.00 | 0.00 | 43 | 999.5 |
| 20260504214009 | 78 | 238 | 5.0 | 13.0 | 0.00 | 0.00 | 0.00 | 44 | 999.6 |